Time,TemperatureF,DewpointF,PressureIn,WindDirection,WindDirectionDegrees,WindSpeedMPH,WindSpeedGustMPH,Humidity,HourlyPrecipIn,Conditions,Clouds,dailyrainin,SoftwareType,DateUTC
2013-09-09 00:00:00,59.9,44.0,29.94,NNE,22,18.4,26.0,56,0.00,,,0.00,Rainwise IP-100,2013-09-09 04:00:00,
2013-09-09 00:01:00,59.9,44.0,29.93,NE,45,17.3,26.0,56,0.00,,,0.00,Rainwise IP-100,2013-09-09 04:01:00,
2013-09-09 00:06:00,59.8,44.0,29.94,NE,45,17.3,25.0,57,0.00,,,0.00,Rainwise IP-100,2013-09-09 04:06:00,
2013-09-09 00:07:00,59.8,44.0,29.95,NNE,22,9.1,25.0,57,0.00,,,0.00,Rainwise IP-100,2013-09-09 04:07:00,
2013-09-09 00:11:00,59.8,44.0,29.93,NE,45,21.5,25.0,57,0.00,,,0.00,Rainwise IP-100,2013-09-09 04:11:00,
2013-09-09 00:12:00,59.8,44.0,29.94,NE,45,20.1,25.0,57,0.00,,,0.00,Rainwise IP-100,2013-09-09 04:12:00,
2013-09-09 00:16:00,59.7,44.0,29.95,NE,45,21.2,24.0,57,0.00,,,0.00,Rainwise IP-100,2013-09-09 04:16:00,
2013-09-09 00:17:00,59.7,44.0,29.95,NE,45,21.5,27.0,57,0.00,,,0.00,Rainwise IP-100,2013-09-09 04:17:00,
2013-09-09 00:18:00,59.8,44.0,29.95,NNE,22,13.5,27.0,57,0.00,,,0.00,Rainwise IP-100,2013-09-09 04:18:00,
2013-09-09 00:19:00,59.8,44.0,29.95,NE,45,22.6,27.0,57,0.00,,,0.00,Rainwise IP-100,2013-09-09 04:19:00,
2013-09-09 00:22:00,59.9,45.0,29.95,NNE,22,18.9,27.0,57,0.00,,,0.00,Rainwise IP-100,2013-09-09 04:22:00,
2013-09-09 00:24:00,59.9,44.0,29.94,NNE,22,14.7,28.0,56,0.00,,,0.00,Rainwise IP-100,2013-09-09 04:24:00,
2013-09-09 00:26:00,60.0,44.0,29.96,NE,45,18.4,28.0,56,0.00,,,0.00,Rainwise IP-100,2013-09-09 04:26:00,
2013-09-09 00:27:00,60.0,44.0,29.96,NE,45,23.8,28.0,55,0.00,,,0.00,Rainwise IP-100,2013-09-09 04:27:00,
2013-09-09 00:28:00,60.1,43.0,29.96,NNE,22,20.8,28.0,54,0.00,,,0.00,Rainwise IP-100,2013-09-09 04:28:00,
2013-09-09 00:29:00,60.1,43.0,29.95,NE,45,16.8,31.0,54,0.00,,,0.00,Rainwise IP-100,2013-09-09 04:29:00,
2013-09-09 00:31:00,60.0,43.0,29.96,NE,45,16.3,31.0,53,0.00,,,0.00,Rainwise IP-100,2013-09-09 04:31:00,
2013-09-09 00:32:00,60.0,43.0,29.96,NE,45,20.3,31.0,53,0.00,,,0.00,Rainwise IP-100,2013-09-09 04:32:00,
2013-09-09 00:33:00,60.0,43.0,29.96,NNE,22,11.2,31.0,53,0.00,,,0.00,Rainwise IP-100,2013-09-09 04:33:00,
2013-09-09 00:34:00,59.9,43.0,29.96,NNE,22,16.3,25.0,53,0.00,,,0.00,Rainwise IP-100,2013-09-09 04:34:00,
2013-09-09 00:35:00,59.9,43.0,29.96,NE,45,18.7,23.0,53,0.00,,,0.00,Rainwise IP-100,2013-09-09 04:35:00,
2013-09-09 00:36:00,59.9,43.0,29.95,NE,45,13.5,24.0,53,0.00,,,0.00,Rainwise IP-100,2013-09-09 04:36:00,
2013-09-09 00:37:00,59.9,43.0,29.96,NE,45,8.9,24.0,53,0.00,,,0.00,Rainwise IP-100,2013-09-09 04:37:00,
2013-09-09 00:38:00,59.8,42.0,29.97,NE,45,11.9,24.0,53,0.00,,,0.00,Rainwise IP-100,2013-09-09 04:38:00,
2013-09-09 00:39:00,59.8,42.0,29.97,NNE,22,20.3,24.0,53,0.00,,,0.00,Rainwise IP-100,2013-09-09 04:39:00,
2013-09-09 00:41:00,59.8,42.0,29.97,NE,45,12.6,24.0,53,0.00,,,0.00,Rainwise IP-100,2013-09-09 04:41:00,
2013-09-09 00:43:00,59.8,42.0,29.96,NE,45,15.9,22.0,53,0.00,,,0.00,Rainwise IP-100,2013-09-09 04:43:00,
2013-09-09 00:45:00,59.8,42.0,29.98,NE,45,15.9,22.0,53,0.00,,,0.00,Rainwise IP-100,2013-09-09 04:45:00,
2013-09-09 00:46:00,59.8,42.0,29.97,NE,45,20.1,22.0,53,0.00,,,0.00,Rainwise IP-100,2013-09-09 04:46:00,
2013-09-09 00:48:00,59.9,42.0,29.96,NE,45,13.8,22.0,52,0.00,,,0.00,Rainwise IP-100,2013-09-09 04:48:00,
2013-09-09 00:49:00,59.8,42.0,29.97,NE,45,12.1,22.0,52,0.00,,,0.00,Rainwise IP-100,2013-09-09 04:49:00,
2013-09-09 00:50:00,59.8,42.0,29.97,NE,45,15.2,22.0,52,0.00,,,0.00,Rainwise IP-100,2013-09-09 04:50:00,
2013-09-09 00:53:00,59.8,41.0,29.97,NE,45,17.3,25.0,51,0.00,,,0.00,Rainwise IP-100,2013-09-09 04:53:00,
2013-09-09 00:54:00,59.8,41.0,29.96,NE,45,19.8,25.0,51,0.00,,,0.00,Rainwise IP-100,2013-09-09 04:54:00,
2013-09-09 00:55:00,59.8,41.0,29.97,NNE,22,12.1,25.0,51,0.00,,,0.00,Rainwise IP-100,2013-09-09 04:55:00,
2013-09-09 00:56:00,59.8,41.0,29.97,NNE,22,19.1,25.0,50,0.00,,,0.00,Rainwise IP-100,2013-09-09 04:56:00,
2013-09-09 00:58:00,59.8,41.0,29.96,NNE,22,21.0,27.0,50,0.00,,,0.00,Rainwise IP-100,2013-09-09 04:58:00,
2013-09-09 00:59:00,59.9,41.0,29.96,NE,45,22.9,27.0,50,0.00,,,0.00,Rainwise IP-100,2013-09-09 04:59:00,
2013-09-09 01:01:00,59.9,41.0,29.97,ENE,67,15.4,27.0,50,0.00,,,0.00,Rainwise IP-100,2013-09-09 05:01:00,
2013-09-09 01:03:00,59.9,41.0,29.97,NE,45,18.9,24.0,50,0.00,,,0.00,Rainwise IP-100,2013-09-09 05:03:00,
2013-09-09 01:04:00,59.9,41.0,29.97,NE,45,16.6,24.0,50,0.00,,,0.00,Rainwise IP-100,2013-09-09 05:04:00,
2013-09-09 01:06:00,59.9,41.0,29.98,NE,45,18.4,24.0,50,0.00,,,0.00,Rainwise IP-100,2013-09-09 05:06:00,
2013-09-09 01:08:00,59.9,40.0,29.98,NE,45,19.4,23.0,49,0.00,,,0.00,Rainwise IP-100,2013-09-09 05:08:00,
2013-09-09 01:09:00,59.9,40.0,29.98,NNE,22,13.3,22.0,49,0.00,,,0.00,Rainwise IP-100,2013-09-09 05:09:00,
2013-09-09 01:10:00,59.9,40.0,29.97,NE,45,15.2,22.0,49,0.00,,,0.00,Rainwise IP-100,2013-09-09 05:10:00,
2013-09-09 01:11:00,59.9,40.0,29.97,NNE,22,14.7,22.0,49,0.00,,,0.00,Rainwise IP-100,2013-09-09 05:11:00,
2013-09-09 01:13:00,59.9,40.0,29.98,NE,45,14.7,22.0,49,0.00,,,0.00,Rainwise IP-100,2013-09-09 05:13:00,
2013-09-09 01:14:00,59.9,40.0,29.97,NE,45,12.1,22.0,49,0.00,,,0.00,Rainwise IP-100,2013-09-09 05:14:00,
2013-09-09 01:15:00,59.9,40.0,29.97,NNE,22,14.2,22.0,49,0.00,,,0.00,Rainwise IP-100,2013-09-09 05:15:00,
2013-09-09 01:16:00,59.9,40.0,29.97,NE,45,13.3,22.0,49,0.00,,,0.00,Rainwise IP-100,2013-09-09 05:16:00,
2013-09-09 01:17:00,59.8,40.0,29.97,NE,45,16.1,22.0,49,0.00,,,0.00,Rainwise IP-100,2013-09-09 05:17:00,
2013-09-09 01:18:00,59.8,40.0,29.97,NNE,22,14.5,22.0,49,0.00,,,0.00,Rainwise IP-100,2013-09-09 05:18:00,
2013-09-09 01:19:00,59.8,40.0,29.97,NNE,22,16.1,22.0,49,0.00,,,0.00,Rainwise IP-100,2013-09-09 05:19:00,
2013-09-09 01:20:00,59.7,40.0,29.97,NE,45,14.9,22.0,49,0.00,,,0.00,Rainwise IP-100,2013-09-09 05:20:00,
2013-09-09 01:21:00,59.7,40.0,29.97,NE,45,13.5,22.0,49,0.00,,,0.00,Rainwise IP-100,2013-09-09 05:21:00,
2013-09-09 01:22:00,59.6,41.0,29.98,NE,45,14.9,22.0,50,0.00,,,0.00,Rainwise IP-100,2013-09-09 05:22:00,
2013-09-09 01:25:00,59.6,41.0,29.98,NE,45,16.1,20.0,50,0.00,,,0.00,Rainwise IP-100,2013-09-09 05:25:00,
2013-09-09 01:26:00,59.5,41.0,29.97,NE,45,17.3,20.0,50,0.00,,,0.00,Rainwise IP-100,2013-09-09 05:26:00,
2013-09-09 01:27:00,59.5,41.0,29.97,NE,45,20.3,20.3,50,0.00,,,0.00,Rainwise IP-100,2013-09-09 05:27:00,
2013-09-09 01:29:00,59.5,41.0,29.97,NE,45,19.4,24.0,51,0.00,,,0.00,Rainwise IP-100,2013-09-09 05:29:00,
2013-09-09 01:30:00,59.5,41.0,29.97,NE,45,18.7,24.0,51,0.00,,,0.00,Rainwise IP-100,2013-09-09 05:30:00,
2013-09-09 01:31:00,59.6,41.0,29.96,NNE,22,16.3,24.0,51,0.00,,,0.00,Rainwise IP-100,2013-09-09 05:31:00,
2013-09-09 01:32:00,59.6,41.0,29.97,NE,45,16.3,24.0,51,0.00,,,0.00,Rainwise IP-100,2013-09-09 05:32:00,
2013-09-09 01:35:00,59.6,41.0,29.97,NE,45,16.6,22.0,50,0.00,,,0.00,Rainwise IP-100,2013-09-09 05:35:00,
2013-09-09 01:36:00,59.6,41.0,29.97,NE,45,11.7,22.0,50,0.00,,,0.00,Rainwise IP-100,2013-09-09 05:36:00,
2013-09-09 01:38:00,59.5,41.0,29.98,NE,45,11.7,21.0,50,0.00,,,0.00,Rainwise IP-100,2013-09-09 05:38:00,
2013-09-09 01:40:00,59.5,41.0,29.98,NE,45,14.5,20.0,51,0.00,,,0.00,Rainwise IP-100,2013-09-09 05:40:00,
2013-09-09 01:42:00,59.4,41.0,29.98,NE,45,15.9,18.0,51,0.00,,,0.00,Rainwise IP-100,2013-09-09 05:42:00,
2013-09-09 01:43:00,59.4,41.0,29.98,ENE,67,17.5,18.0,51,0.00,,,0.00,Rainwise IP-100,2013-09-09 05:43:00,
2013-09-09 01:44:00,59.3,41.0,29.98,ENE,67,16.3,18.0,52,0.00,,,0.00,Rainwise IP-100,2013-09-09 05:44:00,
2013-09-09 01:46:00,59.2,41.0,29.98,NE,45,13.8,18.0,52,0.00,,,0.00,Rainwise IP-100,2013-09-09 05:46:00,
2013-09-09 01:47:00,59.2,41.0,29.98,NE,45,10.3,18.0,52,0.00,,,0.00,Rainwise IP-100,2013-09-09 05:47:00,
2013-09-09 01:48:00,59.2,41.0,29.98,NE,45,12.6,18.0,52,0.00,,,0.00,Rainwise IP-100,2013-09-09 05:48:00,
2013-09-09 01:50:00,59.1,41.0,29.98,NE,45,21.0,21.0,52,0.00,,,0.00,Rainwise IP-100,2013-09-09 05:50:00,
2013-09-09 01:51:00,59.1,41.0,29.97,NE,45,11.9,21.0,52,0.00,,,0.00,Rainwise IP-100,2013-09-09 05:51:00,
2013-09-09 01:52:00,59.1,41.0,29.97,NE,45,12.8,21.0,52,0.00,,,0.00,Rainwise IP-100,2013-09-09 05:52:00,
2013-09-09 01:54:00,59.0,41.0,29.98,ENE,67,12.6,21.0,52,0.00,,,0.00,Rainwise IP-100,2013-09-09 05:54:00,
2013-09-09 01:56:00,59.0,41.0,29.98,ENE,67,8.4,21.0,52,0.00,,,0.00,Rainwise IP-100,2013-09-09 05:56:00,
2013-09-09 01:57:00,59.0,41.0,29.98,NE,45,12.8,17.0,52,0.00,,,0.00,Rainwise IP-100,2013-09-09 05:57:00,
2013-09-09 01:58:00,59.0,41.0,29.98,NE,45,12.1,17.0,52,0.00,,,0.00,Rainwise IP-100,2013-09-09 05:58:00,
2013-09-09 01:59:00,59.0,41.0,29.98,NE,45,12.8,19.0,52,0.00,,,0.00,Rainwise IP-100,2013-09-09 05:59:00,
2013-09-09 02:01:00,58.9,41.0,29.98,NE,45,12.6,19.0,52,0.00,,,0.00,Rainwise IP-100,2013-09-09 06:01:00,
2013-09-09 02:02:00,58.9,41.0,29.98,NE,45,16.8,19.0,52,0.00,,,0.00,Rainwise IP-100,2013-09-09 06:02:00,
2013-09-09 02:03:00,59.0,41.0,29.98,NNE,22,18.2,19.0,52,0.00,,,0.00,Rainwise IP-100,2013-09-09 06:03:00,
2013-09-09 02:04:00,59.0,41.0,29.97,NE,45,15.6,20.0,52,0.00,,,0.00,Rainwise IP-100,2013-09-09 06:04:00,
2013-09-09 02:06:00,59.0,41.0,29.98,NNE,22,15.2,21.0,52,0.00,,,0.00,Rainwise IP-100,2013-09-09 06:06:00,
2013-09-09 02:07:00,59.0,41.0,29.98,NE,45,14.0,21.0,52,0.00,,,0.00,Rainwise IP-100,2013-09-09 06:07:00,
2013-09-09 02:08:00,58.9,41.0,29.98,NE,45,14.0,21.0,52,0.00,,,0.00,Rainwise IP-100,2013-09-09 06:08:00,
2013-09-09 02:09:00,58.9,41.0,29.97,NE,45,15.9,21.0,52,0.00,,,0.00,Rainwise IP-100,2013-09-09 06:09:00,
2013-09-09 02:10:00,58.9,41.0,29.97,NE,45,15.9,20.0,52,0.00,,,0.00,Rainwise IP-100,2013-09-09 06:10:00,
2013-09-09 02:11:00,58.9,41.0,29.98,NNE,22,14.2,20.0,52,0.00,,,0.00,Rainwise IP-100,2013-09-09 06:11:00,
2013-09-09 02:13:00,58.8,41.0,29.98,NE,45,16.8,20.0,52,0.00,,,0.00,Rainwise IP-100,2013-09-09 06:13:00,
2013-09-09 02:14:00,58.8,42.0,29.98,ENE,67,9.6,20.0,53,0.00,,,0.00,Rainwise IP-100,2013-09-09 06:14:00,
2013-09-09 02:17:00,58.8,42.0,29.97,NE,45,18.2,19.0,54,0.00,,,0.00,Rainwise IP-100,2013-09-09 06:17:00,
2013-09-09 02:19:00,58.8,42.0,29.97,ENE,67,14.5,20.0,53,0.00,,,0.00,Rainwise IP-100,2013-09-09 06:19:00,
2013-09-09 02:20:00,58.8,42.0,29.97,NNE,22,12.6,20.0,53,0.00,,,0.00,Rainwise IP-100,2013-09-09 06:20:00,
2013-09-09 02:21:00,58.8,42.0,29.97,NE,45,14.2,21.0,53,0.00,,,0.00,Rainwise IP-100,2013-09-09 06:21:00,
2013-09-09 02:22:00,58.8,42.0,29.97,NE,45,18.2,21.0,53,0.00,,,0.00,Rainwise IP-100,2013-09-09 06:22:00,
2013-09-09 02:23:00,58.8,42.0,29.97,NE,45,13.1,22.0,53,0.00,,,0.00,Rainwise IP-100,2013-09-09 06:23:00,
2013-09-09 02:24:00,58.8,42.0,29.98,NE,45,11.0,22.0,53,0.00,,,0.00,Rainwise IP-100,2013-09-09 06:24:00,
2013-09-09 02:25:00,58.8,42.0,29.97,NE,45,13.8,22.0,53,0.00,,,0.00,Rainwise IP-100,2013-09-09 06:25:00,
2013-09-09 02:27:00,58.7,42.0,29.98,NE,45,17.7,18.0,54,0.00,,,0.00,Rainwise IP-100,2013-09-09 06:27:00,
2013-09-09 02:29:00,58.7,42.0,29.97,NE,45,13.1,18.0,54,0.00,,,0.00,Rainwise IP-100,2013-09-09 06:29:00,
2013-09-09 02:30:00,58.6,43.0,29.97,ENE,67,12.4,18.0,55,0.00,,,0.00,Rainwise IP-100,2013-09-09 06:30:00,
2013-09-09 02:32:00,58.5,43.0,29.97,NE,45,12.4,20.0,55,0.00,,,0.00,Rainwise IP-100,2013-09-09 06:32:00,
2013-09-09 02:34:00,58.4,42.0,29.98,NE,45,11.0,20.0,56,0.00,,,0.00,Rainwise IP-100,2013-09-09 06:34:00,
2013-09-09 02:35:00,58.4,42.0,29.98,NNE,22,8.9,20.0,56,0.00,,,0.00,Rainwise IP-100,2013-09-09 06:35:00,
2013-09-09 02:36:00,58.3,43.0,29.98,NNE,22,11.4,19.0,57,0.00,,,0.00,Rainwise IP-100,2013-09-09 06:36:00,
2013-09-09 02:38:00,58.3,43.0,29.98,NE,45,15.9,17.0,57,0.00,,,0.00,Rainwise IP-100,2013-09-09 06:38:00,
2013-09-09 02:39:00,58.2,43.0,29.97,NE,45,12.8,17.0,58,0.00,,,0.00,Rainwise IP-100,2013-09-09 06:39:00,
2013-09-09 02:40:00,58.2,43.0,29.98,NE,45,14.0,17.0,58,0.00,,,0.00,Rainwise IP-100,2013-09-09 06:40:00,
2013-09-09 02:41:00,58.2,44.0,29.98,NE,45,9.3,17.0,59,0.00,,,0.00,Rainwise IP-100,2013-09-09 06:41:00,
2013-09-09 02:43:00,58.1,44.0,29.98,NNE,22,11.4,16.0,59,0.00,,,0.00,Rainwise IP-100,2013-09-09 06:43:00,
2013-09-09 02:45:00,58.0,44.0,29.98,NE,45,9.3,15.0,60,0.00,,,0.00,Rainwise IP-100,2013-09-09 06:45:00,
2013-09-09 02:46:00,58.0,44.0,29.98,NNE,22,13.8,15.0,60,0.00,,,0.00,Rainwise IP-100,2013-09-09 06:46:00,
2013-09-09 02:47:00,58.0,44.0,29.98,ENE,67,10.0,16.0,60,0.00,,,0.00,Rainwise IP-100,2013-09-09 06:47:00,
2013-09-09 02:48:00,58.0,44.0,29.98,NNE,22,7.5,16.0,60,0.00,,,0.00,Rainwise IP-100,2013-09-09 06:48:00,
2013-09-09 02:50:00,57.9,44.0,29.98,NNE,22,13.3,16.0,60,0.00,,,0.00,Rainwise IP-100,2013-09-09 06:50:00,
2013-09-09 02:51:00,57.9,44.0,29.98,NNE,22,10.7,16.0,60,0.00,,,0.00,Rainwise IP-100,2013-09-09 06:51:00,
2013-09-09 02:52:00,57.9,45.0,29.97,NNE,22,13.1,16.0,61,0.00,,,0.00,Rainwise IP-100,2013-09-09 06:52:00,
2013-09-09 02:53:00,57.9,45.0,29.98,NNE,22,14.2,16.0,61,0.00,,,0.00,Rainwise IP-100,2013-09-09 06:53:00,
2013-09-09 02:55:00,57.9,45.0,29.98,NE,45,13.1,17.0,61,0.00,,,0.00,Rainwise IP-100,2013-09-09 06:55:00,
2013-09-09 02:56:00,57.9,44.0,29.98,NE,45,15.2,17.0,60,0.00,,,0.00,Rainwise IP-100,2013-09-09 06:56:00,
2013-09-09 02:57:00,57.9,44.0,29.98,NE,45,13.1,17.0,60,0.00,,,0.00,Rainwise IP-100,2013-09-09 06:57:00,
2013-09-09 02:58:00,57.9,44.0,29.98,NNE,22,14.5,15.0,60,0.00,,,0.00,Rainwise IP-100,2013-09-09 06:58:00,
2013-09-09 03:00:00,57.8,44.0,29.98,NNE,22,13.5,16.0,60,0.00,,,0.00,Rainwise IP-100,2013-09-09 07:00:00,
2013-09-09 03:02:00,57.9,44.0,29.98,NE,45,9.8,16.0,60,0.00,,,0.00,Rainwise IP-100,2013-09-09 07:02:00,
2013-09-09 03:03:00,57.8,44.0,29.98,NNE,22,11.2,16.0,60,0.00,,,0.00,Rainwise IP-100,2013-09-09 07:03:00,
2013-09-09 03:04:00,57.9,44.0,29.97,NNE,22,14.7,16.0,60,0.00,,,0.00,Rainwise IP-100,2013-09-09 07:04:00,
2013-09-09 03:05:00,57.9,44.0,29.98,NE,45,12.1,17.0,60,0.00,,,0.00,Rainwise IP-100,2013-09-09 07:05:00,
2013-09-09 03:06:00,57.9,44.0,29.97,NE,45,14.5,18.0,60,0.00,,,0.00,Rainwise IP-100,2013-09-09 07:06:00,
2013-09-09 03:08:00,57.8,44.0,29.98,NE,45,8.9,18.0,60,0.00,,,0.00,Rainwise IP-100,2013-09-09 07:08:00,
2013-09-09 03:09:00,57.8,44.0,29.98,ENE,67,12.6,18.0,60,0.00,,,0.00,Rainwise IP-100,2013-09-09 07:09:00,
2013-09-09 03:11:00,57.8,44.0,29.99,ENE,67,8.6,18.0,60,0.00,,,0.00,Rainwise IP-100,2013-09-09 07:11:00,
2013-09-09 03:13:00,57.7,44.0,29.99,NE,45,9.1,18.0,60,0.00,,,0.00,Rainwise IP-100,2013-09-09 07:13:00,
2013-09-09 03:14:00,57.7,44.0,29.99,NE,45,8.2,15.0,60,0.00,,,0.00,Rainwise IP-100,2013-09-09 07:14:00,
2013-09-09 03:15:00,57.7,44.0,29.99,NE,45,7.5,14.0,60,0.00,,,0.00,Rainwise IP-100,2013-09-09 07:15:00,
2013-09-09 03:16:00,57.7,44.0,29.99,NE,45,9.1,14.0,61,0.00,,,0.00,Rainwise IP-100,2013-09-09 07:16:00,
2013-09-09 03:18:00,57.7,44.0,29.99,NE,45,10.7,12.0,61,0.00,,,0.00,Rainwise IP-100,2013-09-09 07:18:00,
2013-09-09 03:19:00,57.6,44.0,29.99,NE,45,10.3,12.0,61,0.00,,,0.00,Rainwise IP-100,2013-09-09 07:19:00,
2013-09-09 03:20:00,57.6,45.0,29.98,NE,45,9.3,13.0,62,0.00,,,0.00,Rainwise IP-100,2013-09-09 07:20:00,
2013-09-09 03:21:00,57.6,45.0,29.99,NNE,22,9.1,13.0,62,0.00,,,0.00,Rainwise IP-100,2013-09-09 07:21:00,
2013-09-09 03:22:00,57.5,45.0,29.98,NE,45,8.6,13.0,62,0.00,,,0.00,Rainwise IP-100,2013-09-09 07:22:00,
2013-09-09 03:24:00,57.6,45.0,29.98,NNE,22,10.7,17.0,62,0.00,,,0.00,Rainwise IP-100,2013-09-09 07:24:00,
2013-09-09 03:26:00,57.6,45.0,29.99,NE,45,10.5,17.0,62,0.00,,,0.00,Rainwise IP-100,2013-09-09 07:26:00,
2013-09-09 03:27:00,57.6,45.0,29.99,ENE,67,10.3,17.0,62,0.00,,,0.00,Rainwise IP-100,2013-09-09 07:27:00,
2013-09-09 03:28:00,57.6,45.0,29.99,ENE,67,11.2,17.0,62,0.00,,,0.00,Rainwise IP-100,2013-09-09 07:28:00,
2013-09-09 03:29:00,57.6,45.0,29.99,ENE,67,8.2,14.0,62,0.00,,,0.00,Rainwise IP-100,2013-09-09 07:29:00,
2013-09-09 03:31:00,57.7,45.0,29.99,NNE,22,13.8,14.0,62,0.00,,,0.00,Rainwise IP-100,2013-09-09 07:31:00,
2013-09-09 03:32:00,57.7,45.0,29.99,NNE,22,10.7,14.0,62,0.00,,,0.00,Rainwise IP-100,2013-09-09 07:32:00,
2013-09-09 03:33:00,57.7,45.0,29.98,NE,45,10.7,15.0,62,0.00,,,0.00,Rainwise IP-100,2013-09-09 07:33:00,
2013-09-09 03:34:00,57.7,45.0,29.99,NNE,22,11.0,15.0,62,0.00,,,0.00,Rainwise IP-100,2013-09-09 07:34:00,
2013-09-09 03:35:00,57.7,45.0,29.99,NNE,22,11.0,15.0,62,0.00,,,0.00,Rainwise IP-100,2013-09-09 07:35:00,
2013-09-09 03:37:00,57.7,45.0,29.99,NE,45,8.9,15.0,62,0.00,,,0.00,Rainwise IP-100,2013-09-09 07:37:00,
2013-09-09 03:39:00,57.8,44.0,29.99,NE,45,10.3,18.0,61,0.00,,,0.00,Rainwise IP-100,2013-09-09 07:39:00,
2013-09-09 03:40:00,57.8,44.0,29.99,NE,45,7.0,18.0,61,0.00,,,0.00,Rainwise IP-100,2013-09-09 07:40:00,
2013-09-09 03:42:00,57.8,44.0,29.99,NE,45,12.1,18.0,60,0.00,,,0.00,Rainwise IP-100,2013-09-09 07:42:00,
2013-09-09 03:45:00,57.8,44.0,30.00,NE,45,10.3,16.0,60,0.00,,,0.00,Rainwise IP-100,2013-09-09 07:45:00,
2013-09-09 03:47:00,57.9,44.0,29.99,NNE,22,8.2,16.0,60,0.00,,,0.00,Rainwise IP-100,2013-09-09 07:47:00,
2013-09-09 03:49:00,57.9,44.0,30.00,NE,45,10.5,14.0,60,0.00,,,0.00,Rainwise IP-100,2013-09-09 07:49:00,
2013-09-09 03:50:00,57.9,45.0,29.99,NE,45,11.9,14.0,61,0.00,,,0.00,Rainwise IP-100,2013-09-09 07:50:00,
2013-09-09 03:51:00,57.9,45.0,29.99,NNE,22,12.6,14.0,61,0.00,,,0.00,Rainwise IP-100,2013-09-09 07:51:00,
2013-09-09 03:52:00,57.9,45.0,29.99,NE,45,12.4,16.0,62,0.00,,,0.00,Rainwise IP-100,2013-09-09 07:52:00,
2013-09-09 03:55:00,57.8,45.0,30.00,NE,45,11.4,16.0,63,0.00,,,0.00,Rainwise IP-100,2013-09-09 07:55:00,
2013-09-09 03:56:00,57.7,46.0,30.00,NNE,22,13.3,16.0,64,0.00,,,0.00,Rainwise IP-100,2013-09-09 07:56:00,
2013-09-09 03:58:00,57.6,46.0,29.99,NNE,22,10.7,15.0,65,0.00,,,0.00,Rainwise IP-100,2013-09-09 07:58:00,
2013-09-09 04:00:00,57.5,46.0,30.00,NE,45,12.1,14.0,65,0.00,,,0.00,Rainwise IP-100,2013-09-09 08:00:00,
2013-09-09 04:01:00,57.5,46.0,30.00,NNE,22,12.4,15.0,65,0.00,,,0.00,Rainwise IP-100,2013-09-09 08:01:00,
2013-09-09 04:02:00,57.4,46.0,30.00,NNE,22,11.2,15.0,65,0.00,,,0.00,Rainwise IP-100,2013-09-09 08:02:00,
2013-09-09 04:03:00,57.4,46.0,30.00,NE,45,11.4,15.0,65,0.00,,,0.00,Rainwise IP-100,2013-09-09 08:03:00,
2013-09-09 04:04:00,57.3,46.0,30.00,NE,45,12.1,15.0,66,0.00,,,0.00,Rainwise IP-100,2013-09-09 08:04:00,
2013-09-09 04:05:00,57.3,46.0,30.01,NE,45,7.2,15.0,66,0.00,,,0.00,Rainwise IP-100,2013-09-09 08:05:00,
2013-09-09 04:06:00,57.3,46.0,30.01,NE,45,11.7,15.0,66,0.00,,,0.00,Rainwise IP-100,2013-09-09 08:06:00,
2013-09-09 04:07:00,57.2,46.0,30.00,NE,45,9.1,15.0,66,0.00,,,0.00,Rainwise IP-100,2013-09-09 08:07:00,
2013-09-09 04:08:00,57.2,46.0,30.01,NNE,22,16.1,16.1,66,0.00,,,0.00,Rainwise IP-100,2013-09-09 08:08:00,
2013-09-09 04:09:00,57.2,46.0,30.01,NNE,22,15.6,16.0,66,0.00,,,0.00,Rainwise IP-100,2013-09-09 08:09:00,
2013-09-09 04:10:00,57.2,46.0,30.01,NNE,22,12.1,17.0,66,0.00,,,0.00,Rainwise IP-100,2013-09-09 08:10:00,
2013-09-09 04:13:00,57.1,46.0,30.01,NE,45,10.0,17.0,66,0.00,,,0.00,Rainwise IP-100,2013-09-09 08:13:00,
2013-09-09 04:15:00,57.1,46.0,30.01,NE,45,9.6,14.0,67,0.00,,,0.00,Rainwise IP-100,2013-09-09 08:15:00,
2013-09-09 04:17:00,57.1,46.0,30.01,NNE,22,10.0,13.0,67,0.00,,,0.00,Rainwise IP-100,2013-09-09 08:17:00,
2013-09-09 04:18:00,57.1,46.0,30.00,NE,45,10.0,13.0,66,0.00,,,0.00,Rainwise IP-100,2013-09-09 08:18:00,
2013-09-09 04:20:00,57.1,46.0,30.00,NE,45,13.1,16.0,66,0.00,,,0.00,Rainwise IP-100,2013-09-09 08:20:00,
2013-09-09 04:21:00,57.1,46.0,30.01,NE,45,11.0,16.0,66,0.00,,,0.00,Rainwise IP-100,2013-09-09 08:21:00,
2013-09-09 04:22:00,57.1,46.0,30.00,NE,45,11.4,16.0,67,0.00,,,0.00,Rainwise IP-100,2013-09-09 08:22:00,
2013-09-09 04:24:00,57.1,46.0,30.00,ENE,67,6.3,16.0,67,0.00,,,0.00,Rainwise IP-100,2013-09-09 08:24:00,
2013-09-09 04:26:00,57.2,46.0,30.01,NNE,22,12.1,16.0,67,0.00,,,0.00,Rainwise IP-100,2013-09-09 08:26:00,
2013-09-09 04:27:00,57.2,46.0,30.01,NE,45,12.6,16.0,67,0.00,,,0.00,Rainwise IP-100,2013-09-09 08:27:00,
2013-09-09 04:29:00,57.2,46.0,30.01,NE,45,8.4,16.0,67,0.00,,,0.00,Rainwise IP-100,2013-09-09 08:29:00,
2013-09-09 04:31:00,57.1,46.0,30.01,NE,45,11.0,16.0,67,0.00,,,0.00,Rainwise IP-100,2013-09-09 08:31:00,
2013-09-09 04:32:00,57.1,46.0,30.01,NE,45,6.8,13.0,67,0.00,,,0.00,Rainwise IP-100,2013-09-09 08:32:00,
2013-09-09 04:33:00,57.1,46.0,30.01,NNE,22,12.8,12.8,67,0.00,,,0.00,Rainwise IP-100,2013-09-09 08:33:00,
2013-09-09 04:34:00,57.1,46.0,30.01,NE,45,8.2,13.0,67,0.00,,,0.00,Rainwise IP-100,2013-09-09 08:34:00,
2013-09-09 04:35:00,57.0,46.0,30.01,NNE,22,9.6,13.0,67,0.00,,,0.00,Rainwise IP-100,2013-09-09 08:35:00,
2013-09-09 04:36:00,57.0,47.0,30.01,NNE,22,12.6,13.0,68,0.00,,,0.00,Rainwise IP-100,2013-09-09 08:36:00,
2013-09-09 04:37:00,57.0,47.0,30.01,NE,45,11.9,14.0,68,0.00,,,0.00,Rainwise IP-100,2013-09-09 08:37:00,
2013-09-09 04:39:00,57.0,46.0,30.01,NE,45,11.4,14.0,67,0.00,,,0.00,Rainwise IP-100,2013-09-09 08:39:00,
2013-09-09 04:40:00,57.0,46.0,30.02,NE,45,8.2,14.0,67,0.00,,,0.00,Rainwise IP-100,2013-09-09 08:40:00,
2013-09-09 04:41:00,56.9,46.0,30.02,ENE,67,9.6,14.0,67,0.00,,,0.00,Rainwise IP-100,2013-09-09 08:41:00,
2013-09-09 04:43:00,56.8,46.0,30.02,NE,45,7.9,13.0,67,0.00,,,0.00,Rainwise IP-100,2013-09-09 08:43:00,
2013-09-09 04:44:00,56.8,46.0,30.02,NE,45,10.7,13.0,67,0.00,,,0.00,Rainwise IP-100,2013-09-09 08:44:00,
2013-09-09 04:46:00,56.8,46.0,30.02,NE,45,10.7,12.0,67,0.00,,,0.00,Rainwise IP-100,2013-09-09 08:46:00,
2013-09-09 04:47:00,56.8,46.0,30.02,NE,45,9.8,12.0,67,0.00,,,0.00,Rainwise IP-100,2013-09-09 08:47:00,
2013-09-09 04:49:00,56.8,46.0,30.01,NNE,22,8.4,12.0,67,0.00,,,0.00,Rainwise IP-100,2013-09-09 08:49:00,
2013-09-09 04:51:00,56.8,46.0,30.02,NE,45,9.6,13.0,67,0.00,,,0.00,Rainwise IP-100,2013-09-09 08:51:00,
2013-09-09 04:52:00,56.8,46.0,30.01,NE,45,11.0,13.0,67,0.00,,,0.00,Rainwise IP-100,2013-09-09 08:52:00,
2013-09-09 04:54:00,56.8,46.0,30.02,NE,45,9.8,13.0,67,0.00,,,0.00,Rainwise IP-100,2013-09-09 08:54:00,
2013-09-09 04:55:00,56.8,46.0,30.01,NE,45,14.5,14.5,67,0.00,,,0.00,Rainwise IP-100,2013-09-09 08:55:00,
2013-09-09 04:56:00,56.8,46.0,30.02,NE,45,14.2,14.2,67,0.00,,,0.00,Rainwise IP-100,2013-09-09 08:56:00,
2013-09-09 04:57:00,56.8,46.0,30.02,NE,45,10.7,14.0,67,0.00,,,0.00,Rainwise IP-100,2013-09-09 08:57:00,
2013-09-09 04:58:00,56.8,46.0,30.02,NE,45,10.7,14.0,67,0.00,,,0.00,Rainwise IP-100,2013-09-09 08:58:00,
2013-09-09 04:59:00,56.8,46.0,30.02,NNE,22,10.7,14.0,67,0.00,,,0.00,Rainwise IP-100,2013-09-09 08:59:00,
2013-09-09 05:01:00,56.9,46.0,30.02,NE,45,8.2,14.0,67,0.00,,,0.00,Rainwise IP-100,2013-09-09 09:01:00,
2013-09-09 05:02:00,56.9,46.0,30.03,NNE,22,9.8,14.0,67,0.00,,,0.00,Rainwise IP-100,2013-09-09 09:02:00,
2013-09-09 05:03:00,56.9,46.0,30.02,NNE,22,10.0,13.0,67,0.00,,,0.00,Rainwise IP-100,2013-09-09 09:03:00,
2013-09-09 05:05:00,57.0,46.0,30.02,NNE,22,11.4,14.0,67,0.00,,,0.00,Rainwise IP-100,2013-09-09 09:05:00,
2013-09-09 05:06:00,57.0,46.0,30.02,NE,45,11.7,14.0,67,0.00,,,0.00,Rainwise IP-100,2013-09-09 09:06:00,
2013-09-09 05:07:00,56.9,46.0,30.03,NNE,22,8.6,14.0,67,0.00,,,0.00,Rainwise IP-100,2013-09-09 09:07:00,
2013-09-09 05:08:00,56.9,46.0,30.02,NE,45,8.9,14.0,67,0.00,,,0.00,Rainwise IP-100,2013-09-09 09:08:00,
2013-09-09 05:09:00,56.9,46.0,30.02,NE,45,10.3,13.0,67,0.00,,,0.00,Rainwise IP-100,2013-09-09 09:09:00,
2013-09-09 05:11:00,56.8,46.0,30.02,NE,45,9.6,13.0,67,0.00,,,0.00,Rainwise IP-100,2013-09-09 09:11:00,
2013-09-09 05:12:00,56.8,46.0,30.03,NE,45,8.4,13.0,68,0.00,,,0.00,Rainwise IP-100,2013-09-09 09:12:00,
2013-09-09 05:13:00,56.7,46.0,30.02,NE,45,12.4,14.0,68,0.00,,,0.00,Rainwise IP-100,2013-09-09 09:13:00,
2013-09-09 05:14:00,56.7,46.0,30.03,NE,45,10.3,14.0,68,0.00,,,0.00,Rainwise IP-100,2013-09-09 09:14:00,
2013-09-09 05:16:00,56.6,46.0,30.03,NE,45,11.0,15.0,68,0.00,,,0.00,Rainwise IP-100,2013-09-09 09:16:00,
2013-09-09 05:17:00,56.6,46.0,30.02,NNE,22,11.7,15.0,68,0.00,,,0.00,Rainwise IP-100,2013-09-09 09:17:00,
2013-09-09 05:18:00,56.5,46.0,30.03,NE,45,11.9,15.0,68,0.00,,,0.00,Rainwise IP-100,2013-09-09 09:18:00,
2013-09-09 05:20:00,56.6,46.0,30.03,NNE,22,13.3,15.0,68,0.00,,,0.00,Rainwise IP-100,2013-09-09 09:20:00,
2013-09-09 05:21:00,56.6,46.0,30.03,NNE,22,13.3,15.0,68,0.00,,,0.00,Rainwise IP-100,2013-09-09 09:21:00,
2013-09-09 05:22:00,56.7,46.0,30.03,NE,45,9.6,15.0,68,0.00,,,0.00,Rainwise IP-100,2013-09-09 09:22:00,
2013-09-09 05:24:00,56.8,46.0,30.03,NE,45,7.9,15.0,68,0.00,,,0.00,Rainwise IP-100,2013-09-09 09:24:00,
2013-09-09 05:26:00,56.9,46.0,30.03,NE,45,11.0,15.0,67,0.00,,,0.00,Rainwise IP-100,2013-09-09 09:26:00,
2013-09-09 05:27:00,56.9,46.0,30.03,ENE,67,10.7,15.0,67,0.00,,,0.00,Rainwise IP-100,2013-09-09 09:27:00,
2013-09-09 05:28:00,57.0,46.0,30.03,NE,45,13.8,16.0,67,0.00,,,0.00,Rainwise IP-100,2013-09-09 09:28:00,
2013-09-09 05:29:00,57.0,46.0,30.03,NE,45,9.8,16.0,67,0.00,,,0.00,Rainwise IP-100,2013-09-09 09:29:00,
2013-09-09 05:31:00,57.0,46.0,30.03,NNE,22,12.4,16.0,66,0.00,,,0.00,Rainwise IP-100,2013-09-09 09:31:00,
2013-09-09 05:32:00,57.0,46.0,30.03,NNE,22,9.8,16.0,66,0.00,,,0.00,Rainwise IP-100,2013-09-09 09:32:00,
2013-09-09 05:33:00,57.0,46.0,30.04,NE,45,6.3,16.0,66,0.00,,,0.00,Rainwise IP-100,2013-09-09 09:33:00,
2013-09-09 05:34:00,57.0,46.0,30.04,NE,45,7.5,13.0,66,0.00,,,0.00,Rainwise IP-100,2013-09-09 09:34:00,
2013-09-09 05:35:00,57.0,46.0,30.04,NNE,22,6.5,13.0,66,0.00,,,0.00,Rainwise IP-100,2013-09-09 09:35:00,
2013-09-09 05:36:00,56.9,46.0,30.04,NNE,22,11.4,13.0,66,0.00,,,0.00,Rainwise IP-100,2013-09-09 09:36:00,
2013-09-09 05:37:00,56.9,46.0,30.03,ENE,67,7.0,12.0,67,0.00,,,0.00,Rainwise IP-100,2013-09-09 09:37:00,
2013-09-09 05:38:00,56.8,46.0,30.04,NE,45,11.2,12.0,67,0.00,,,0.00,Rainwise IP-100,2013-09-09 09:38:00,
2013-09-09 05:40:00,56.7,46.0,30.04,NE,45,10.0,13.0,68,0.00,,,0.00,Rainwise IP-100,2013-09-09 09:40:00,
2013-09-09 05:42:00,56.6,46.0,30.04,NE,45,9.1,13.0,68,0.00,,,0.00,Rainwise IP-100,2013-09-09 09:42:00,
2013-09-09 05:45:00,56.7,46.0,30.04,NNE,22,8.9,17.0,67,0.00,,,0.00,Rainwise IP-100,2013-09-09 09:45:00,
2013-09-09 05:46:00,56.7,46.0,30.04,NNE,22,7.7,17.0,67,0.00,,,0.00,Rainwise IP-100,2013-09-09 09:46:00,
2013-09-09 05:47:00,56.5,46.0,30.04,NNE,22,6.8,17.0,67,0.00,,,0.00,Rainwise IP-100,2013-09-09 09:47:00,
2013-09-09 05:48:00,56.4,46.0,30.04,NNE,22,7.7,14.0,68,0.00,,,0.00,Rainwise IP-100,2013-09-09 09:48:00,
2013-09-09 05:50:00,56.1,46.0,30.05,NNE,22,4.0,10.0,69,0.00,,,0.00,Rainwise IP-100,2013-09-09 09:50:00,
2013-09-09 05:52:00,55.8,47.0,30.05,NNE,22,4.4,10.0,71,0.00,,,0.00,Rainwise IP-100,2013-09-09 09:52:00,
2013-09-09 05:53:00,55.8,47.0,30.05,NE,45,6.8,10.0,71,0.00,,,0.00,Rainwise IP-100,2013-09-09 09:53:00,
2013-09-09 05:57:00,55.3,47.0,30.05,NNE,22,9.1,10.0,75,0.00,,,0.00,Rainwise IP-100,2013-09-09 09:57:00,
2013-09-09 05:58:00,55.3,47.0,30.05,NNE,22,6.3,10.0,75,0.00,,,0.00,Rainwise IP-100,2013-09-09 09:58:00,
2013-09-09 06:01:00,55.3,47.0,30.05,NNE,22,4.7,11.0,75,0.00,,,0.00,Rainwise IP-100,2013-09-09 10:01:00,
2013-09-09 06:02:00,55.3,47.0,30.05,NNE,22,5.4,11.0,76,0.00,,,0.00,Rainwise IP-100,2013-09-09 10:02:00,
2013-09-09 06:03:00,55.2,47.0,30.06,NNE,22,6.5,10.0,76,0.00,,,0.00,Rainwise IP-100,2013-09-09 10:03:00,
2013-09-09 06:04:00,55.1,47.0,30.06,NNE,22,5.6,10.0,76,0.00,,,0.00,Rainwise IP-100,2013-09-09 10:04:00,
2013-09-09 06:06:00,55.1,47.0,30.06,NNE,22,6.5,10.0,76,0.00,,,0.00,Rainwise IP-100,2013-09-09 10:06:00,
2013-09-09 06:07:00,55.1,47.0,30.06,NNE,22,4.0,10.0,76,0.00,,,0.00,Rainwise IP-100,2013-09-09 10:07:00,
2013-09-09 06:08:00,55.0,47.0,30.06,North,360,5.6,10.0,76,0.00,,,0.00,Rainwise IP-100,2013-09-09 10:08:00,
2013-09-09 06:09:00,55.0,47.0,30.06,North,360,4.2,10.0,76,0.00,,,0.00,Rainwise IP-100,2013-09-09 10:09:00,
2013-09-09 06:10:00,55.0,47.0,30.06,North,360,5.6,10.0,76,0.00,,,0.00,Rainwise IP-100,2013-09-09 10:10:00,
2013-09-09 06:13:00,54.9,48.0,30.06,North,360,7.0,7.0,77,0.00,,,0.00,Rainwise IP-100,2013-09-09 10:13:00,
2013-09-09 06:14:00,54.8,47.0,30.06,North,360,6.1,7.0,77,0.00,,,0.00,Rainwise IP-100,2013-09-09 10:14:00,
2013-09-09 06:16:00,54.7,47.0,30.06,North,360,5.1,8.0,77,0.00,,,0.00,Rainwise IP-100,2013-09-09 10:16:00,
2013-09-09 06:18:00,54.5,47.0,30.06,NNE,22,4.9,10.0,77,0.00,,,0.00,Rainwise IP-100,2013-09-09 10:18:00,
2013-09-09 06:19:00,54.4,47.0,30.06,NNE,22,5.1,10.0,77,0.00,,,0.00,Rainwise IP-100,2013-09-09 10:19:00,
2013-09-09 06:20:00,54.4,47.0,30.06,North,360,7.5,10.0,77,0.00,,,0.00,Rainwise IP-100,2013-09-09 10:20:00,
2013-09-09 06:21:00,54.3,47.0,30.06,NNE,22,9.1,9.1,77,0.00,,,0.00,Rainwise IP-100,2013-09-09 10:21:00,
2013-09-09 06:22:00,54.3,47.0,30.06,NNE,22,6.8,9.0,77,0.00,,,0.00,Rainwise IP-100,2013-09-09 10:22:00,
2013-09-09 06:23:00,54.3,47.0,30.07,NNE,22,7.7,9.0,78,0.00,,,0.00,Rainwise IP-100,2013-09-09 10:23:00,
2013-09-09 06:25:00,54.4,48.0,30.06,NNE,22,8.4,11.0,78,0.00,,,0.00,Rainwise IP-100,2013-09-09 10:25:00,
2013-09-09 06:26:00,54.4,48.0,30.06,NNE,22,9.8,11.0,78,0.00,,,0.00,Rainwise IP-100,2013-09-09 10:26:00,
2013-09-09 06:27:00,54.4,48.0,30.06,NNE,22,7.0,11.0,78,0.00,,,0.00,Rainwise IP-100,2013-09-09 10:27:00,
2013-09-09 06:28:00,54.5,48.0,30.06,NNE,22,6.3,11.0,78,0.00,,,0.00,Rainwise IP-100,2013-09-09 10:28:00,
2013-09-09 06:29:00,54.5,48.0,30.07,North,360,5.8,11.0,78,0.00,,,0.00,Rainwise IP-100,2013-09-09 10:29:00,
2013-09-09 06:31:00,54.5,48.0,30.06,North,360,6.8,11.0,78,0.00,,,0.00,Rainwise IP-100,2013-09-09 10:31:00,
2013-09-09 06:32:00,54.5,48.0,30.07,NNE,22,5.4,8.0,79,0.00,,,0.00,Rainwise IP-100,2013-09-09 10:32:00,
2013-09-09 06:34:00,54.5,48.0,30.07,North,360,6.1,8.0,79,0.00,,,0.00,Rainwise IP-100,2013-09-09 10:34:00,
2013-09-09 06:37:00,54.5,48.0,30.07,NNE,22,6.1,8.0,79,0.00,,,0.00,Rainwise IP-100,2013-09-09 10:37:00,
2013-09-09 06:38:00,54.6,48.0,30.07,NNE,22,6.8,10.0,78,0.00,,,0.00,Rainwise IP-100,2013-09-09 10:38:00,
2013-09-09 06:39:00,54.6,48.0,30.07,North,360,5.8,10.0,78,0.00,,,0.00,Rainwise IP-100,2013-09-09 10:39:00,
2013-09-09 06:40:00,54.6,48.0,30.07,North,360,5.8,10.0,78,0.00,,,0.00,Rainwise IP-100,2013-09-09 10:40:00,
2013-09-09 06:42:00,54.5,48.0,30.07,North,360,8.2,8.2,78,0.00,,,0.00,Rainwise IP-100,2013-09-09 10:42:00,
2013-09-09 06:43:00,54.5,48.0,30.07,North,360,8.2,8.2,78,0.00,,,0.00,Rainwise IP-100,2013-09-09 10:43:00,
2013-09-09 06:44:00,54.5,48.0,30.08,NNE,22,4.7,8.0,78,0.00,,,0.00,Rainwise IP-100,2013-09-09 10:44:00,
2013-09-09 06:45:00,54.4,48.0,30.07,North,360,4.9,8.0,78,0.00,,,0.00,Rainwise IP-100,2013-09-09 10:45:00,
2013-09-09 06:46:00,54.3,47.0,30.08,NNE,22,7.2,8.0,78,0.00,,,0.00,Rainwise IP-100,2013-09-09 10:46:00,
2013-09-09 06:47:00,54.3,47.0,30.08,NNE,22,7.5,8.0,78,0.00,,,0.00,Rainwise IP-100,2013-09-09 10:47:00,
2013-09-09 06:48:00,54.2,47.0,30.08,NNE,22,5.8,8.0,78,0.00,,,0.00,Rainwise IP-100,2013-09-09 10:48:00,
2013-09-09 06:50:00,54.2,47.0,30.08,NNE,22,6.5,7.0,78,0.00,,,0.00,Rainwise IP-100,2013-09-09 10:50:00,
2013-09-09 06:52:00,54.1,47.0,30.08,NNE,22,7.0,7.0,78,0.00,,,0.00,Rainwise IP-100,2013-09-09 10:52:00,
2013-09-09 06:53:00,54.1,47.0,30.08,NNE,22,6.3,7.0,78,0.00,,,0.00,Rainwise IP-100,2013-09-09 10:53:00,
2013-09-09 06:54:00,54.2,47.0,30.08,North,360,7.2,7.2,78,0.00,,,0.00,Rainwise IP-100,2013-09-09 10:54:00,
2013-09-09 06:55:00,54.2,47.0,30.08,NNE,22,6.3,7.0,78,0.00,,,0.00,Rainwise IP-100,2013-09-09 10:55:00,
2013-09-09 06:57:00,54.3,47.0,30.08,NNE,22,7.2,9.0,78,0.00,,,0.00,Rainwise IP-100,2013-09-09 10:57:00,
2013-09-09 06:58:00,54.4,48.0,30.08,NNE,22,7.5,9.0,78,0.00,,,0.00,Rainwise IP-100,2013-09-09 10:58:00,
2013-09-09 07:00:00,54.5,48.0,30.09,NNE,22,6.8,10.0,78,0.00,,,0.00,Rainwise IP-100,2013-09-09 11:00:00,
2013-09-09 07:01:00,54.6,48.0,30.09,NNE,22,4.9,10.0,78,0.00,,,0.00,Rainwise IP-100,2013-09-09 11:01:00,
2013-09-09 07:02:00,54.6,48.0,30.08,NNE,22,6.5,10.0,78,0.00,,,0.00,Rainwise IP-100,2013-09-09 11:02:00,
2013-09-09 07:03:00,54.7,48.0,30.09,NNE,22,6.8,10.0,78,0.00,,,0.00,Rainwise IP-100,2013-09-09 11:03:00,
2013-09-09 07:04:00,54.7,48.0,30.09,North,360,6.1,10.0,78,0.00,,,0.00,Rainwise IP-100,2013-09-09 11:04:00,
2013-09-09 07:05:00,54.7,48.0,30.08,NNE,22,7.9,9.0,78,0.00,,,0.00,Rainwise IP-100,2013-09-09 11:05:00,
2013-09-09 07:07:00,54.8,48.0,30.08,NNE,22,8.4,10.0,78,0.00,,,0.00,Rainwise IP-100,2013-09-09 11:07:00,
2013-09-09 07:08:00,54.8,48.0,30.08,NNE,22,9.1,10.0,78,0.00,,,0.00,Rainwise IP-100,2013-09-09 11:08:00,
2013-09-09 07:09:00,54.9,48.0,30.08,NNE,22,9.3,11.0,78,0.00,,,0.00,Rainwise IP-100,2013-09-09 11:09:00,
2013-09-09 07:10:00,54.9,48.0,30.09,NNE,22,7.7,11.0,78,0.00,,,0.00,Rainwise IP-100,2013-09-09 11:10:00,
2013-09-09 07:12:00,55.1,48.0,30.09,NNE,22,5.4,11.0,78,0.00,,,0.00,Rainwise IP-100,2013-09-09 11:12:00,
2013-09-09 07:14:00,55.2,48.0,30.09,NNE,22,6.5,9.0,78,0.00,,,0.00,Rainwise IP-100,2013-09-09 11:14:00,
2013-09-09 07:15:00,55.2,48.0,30.09,NNE,22,7.5,9.0,78,0.00,,,0.00,Rainwise IP-100,2013-09-09 11:15:00,
2013-09-09 07:16:00,55.3,48.0,30.09,NNE,22,7.0,9.0,78,0.00,,,0.00,Rainwise IP-100,2013-09-09 11:16:00,
2013-09-09 07:17:00,55.3,48.0,30.09,North,360,6.8,9.0,78,0.00,,,0.00,Rainwise IP-100,2013-09-09 11:17:00,
2013-09-09 07:19:00,55.5,49.0,30.09,NNE,22,7.2,10.0,77,0.00,,,0.00,Rainwise IP-100,2013-09-09 11:19:00,
2013-09-09 07:20:00,55.5,49.0,30.09,NNE,22,5.8,10.0,77,0.00,,,0.00,Rainwise IP-100,2013-09-09 11:20:00,
2013-09-09 07:21:00,55.5,49.0,30.09,NNE,22,6.5,10.0,77,0.00,,,0.00,Rainwise IP-100,2013-09-09 11:21:00,
2013-09-09 07:23:00,55.6,49.0,30.09,NNE,22,5.4,10.0,77,0.00,,,0.00,Rainwise IP-100,2013-09-09 11:23:00,
2013-09-09 07:25:00,55.7,49.0,30.09,NNE,22,8.4,10.0,77,0.00,,,0.00,Rainwise IP-100,2013-09-09 11:25:00,
2013-09-09 07:26:00,55.8,49.0,30.09,NNE,22,6.5,10.0,77,0.00,,,0.00,Rainwise IP-100,2013-09-09 11:26:00,
2013-09-09 07:29:00,55.9,49.0,30.09,NE,45,6.5,10.0,77,0.00,,,0.00,Rainwise IP-100,2013-09-09 11:29:00,
2013-09-09 07:30:00,55.9,49.0,30.09,NNE,22,5.4,9.0,77,0.00,,,0.00,Rainwise IP-100,2013-09-09 11:30:00,
2013-09-09 07:31:00,55.9,49.0,30.09,NNE,22,6.1,9.0,77,0.00,,,0.00,Rainwise IP-100,2013-09-09 11:31:00,
2013-09-09 07:32:00,55.9,49.0,30.09,NNE,22,8.2,9.0,77,0.00,,,0.00,Rainwise IP-100,2013-09-09 11:32:00,
2013-09-09 07:35:00,56.0,49.0,30.09,NNE,22,8.2,12.0,77,0.00,,,0.00,Rainwise IP-100,2013-09-09 11:35:00,
2013-09-09 07:36:00,56.0,49.0,30.09,NNE,22,9.1,12.0,77,0.00,,,0.00,Rainwise IP-100,2013-09-09 11:36:00,
2013-09-09 07:37:00,56.1,49.0,30.09,NE,45,6.1,12.0,77,0.00,,,0.00,Rainwise IP-100,2013-09-09 11:37:00,
2013-09-09 07:41:00,56.2,49.0,30.09,NE,45,7.9,11.0,77,0.00,,,0.00,Rainwise IP-100,2013-09-09 11:41:00,
2013-09-09 07:42:00,56.3,49.0,30.09,NE,45,8.2,11.0,77,0.00,,,0.00,Rainwise IP-100,2013-09-09 11:42:00,
2013-09-09 07:46:00,56.3,49.0,30.09,NNE,22,6.8,9.0,77,0.00,,,0.00,Rainwise IP-100,2013-09-09 11:46:00,
2013-09-09 07:47:00,56.3,49.0,30.09,NNE,22,7.0,9.0,77,0.00,,,0.00,Rainwise IP-100,2013-09-09 11:47:00,
2013-09-09 07:48:00,56.4,49.0,30.10,NE,45,8.4,10.0,77,0.00,,,0.00,Rainwise IP-100,2013-09-09 11:48:00,
2013-09-09 07:51:00,56.5,49.0,30.10,NNE,22,8.2,10.0,77,0.00,,,0.00,Rainwise IP-100,2013-09-09 11:51:00,
2013-09-09 07:52:00,56.5,49.0,30.09,NNE,22,7.0,10.0,77,0.00,,,0.00,Rainwise IP-100,2013-09-09 11:52:00,
2013-09-09 07:53:00,56.6,49.0,30.10,NNE,22,5.8,9.0,77,0.00,,,0.00,Rainwise IP-100,2013-09-09 11:53:00,
2013-09-09 07:54:00,56.6,49.0,30.10,NNE,22,5.4,9.0,77,0.00,,,0.00,Rainwise IP-100,2013-09-09 11:54:00,
2013-09-09 07:56:00,56.7,49.0,30.10,NE,45,7.7,9.0,77,0.00,,,0.00,Rainwise IP-100,2013-09-09 11:56:00,
2013-09-09 07:57:00,56.8,49.0,30.10,NNE,22,6.8,9.0,77,0.00,,,0.00,Rainwise IP-100,2013-09-09 11:57:00,
2013-09-09 07:59:00,56.8,49.0,30.10,NNE,22,8.9,11.0,77,0.00,,,0.00,Rainwise IP-100,2013-09-09 11:59:00,
2013-09-09 08:00:00,56.8,49.0,30.10,NNE,22,11.0,11.0,77,0.00,,,0.00,Rainwise IP-100,2013-09-09 12:00:00,
2013-09-09 08:02:00,56.9,50.0,30.10,NE,45,8.4,11.0,77,0.00,,,0.00,Rainwise IP-100,2013-09-09 12:02:00,
2013-09-09 08:04:00,57.0,50.0,30.10,NNE,22,5.6,11.0,77,0.00,,,0.00,Rainwise IP-100,2013-09-09 12:04:00,
2013-09-09 08:05:00,57.0,50.0,30.10,NNE,22,7.7,11.0,77,0.00,,,0.00,Rainwise IP-100,2013-09-09 12:05:00,
2013-09-09 08:07:00,57.0,50.0,30.10,NNE,22,8.4,10.0,76,0.00,,,0.00,Rainwise IP-100,2013-09-09 12:07:00,
2013-09-09 08:09:00,57.0,50.0,30.10,NNE,22,6.8,10.0,76,0.00,,,0.00,Rainwise IP-100,2013-09-09 12:09:00,
2013-09-09 08:10:00,57.1,50.0,30.10,North,360,7.2,10.0,76,0.00,,,0.00,Rainwise IP-100,2013-09-09 12:10:00,
2013-09-09 08:11:00,57.1,50.0,30.10,North,360,6.3,10.0,77,0.00,,,0.00,Rainwise IP-100,2013-09-09 12:11:00,
2013-09-09 08:12:00,57.2,50.0,30.10,NNE,22,9.3,10.0,77,0.00,,,0.00,Rainwise IP-100,2013-09-09 12:12:00,
2013-09-09 08:14:00,57.1,50.0,30.10,NNE,22,8.2,11.0,77,0.00,,,0.00,Rainwise IP-100,2013-09-09 12:14:00,
2013-09-09 08:15:00,57.1,50.0,30.10,NNE,22,8.9,11.0,77,0.00,,,0.00,Rainwise IP-100,2013-09-09 12:15:00,
2013-09-09 08:16:00,57.1,50.0,30.10,NE,45,9.3,11.0,76,0.00,,,0.00,Rainwise IP-100,2013-09-09 12:16:00,
2013-09-09 08:17:00,57.1,50.0,30.10,NNE,22,8.2,11.0,76,0.00,,,0.00,Rainwise IP-100,2013-09-09 12:17:00,
2013-09-09 08:18:00,57.1,50.0,30.10,NE,45,10.5,11.0,76,0.00,,,0.00,Rainwise IP-100,2013-09-09 12:18:00,
2013-09-09 08:19:00,57.1,50.0,30.10,NNE,22,10.5,11.0,76,0.00,,,0.00,Rainwise IP-100,2013-09-09 12:19:00,
2013-09-09 08:20:00,57.1,50.0,30.10,NNE,22,4.2,11.0,76,0.00,,,0.00,Rainwise IP-100,2013-09-09 12:20:00,
2013-09-09 08:22:00,57.1,50.0,30.10,NNE,22,7.5,11.0,76,0.00,,,0.00,Rainwise IP-100,2013-09-09 12:22:00,
2013-09-09 08:23:00,57.1,50.0,30.10,NNE,22,9.8,11.0,76,0.00,,,0.00,Rainwise IP-100,2013-09-09 12:23:00,
2013-09-09 08:24:00,57.1,50.0,30.10,NNE,22,8.9,11.0,76,0.00,,,0.00,Rainwise IP-100,2013-09-09 12:24:00,
2013-09-09 08:26:00,57.2,50.0,30.11,NNE,22,8.9,11.0,76,0.00,,,0.00,Rainwise IP-100,2013-09-09 12:26:00,
2013-09-09 08:28:00,57.2,50.0,30.10,NNE,22,10.3,11.0,76,0.00,,,0.00,Rainwise IP-100,2013-09-09 12:28:00,
2013-09-09 08:29:00,57.2,50.0,30.11,NNE,22,8.2,11.0,76,0.00,,,0.00,Rainwise IP-100,2013-09-09 12:29:00,
2013-09-09 08:30:00,57.2,50.0,30.11,NNE,22,8.2,11.0,76,0.00,,,0.00,Rainwise IP-100,2013-09-09 12:30:00,
2013-09-09 08:31:00,57.2,50.0,30.11,NE,45,7.2,10.0,76,0.00,,,0.00,Rainwise IP-100,2013-09-09 12:31:00,
2013-09-09 08:33:00,57.2,50.0,30.11,NNE,22,9.3,10.0,76,0.00,,,0.00,Rainwise IP-100,2013-09-09 12:33:00,
2013-09-09 08:34:00,57.3,50.0,30.10,NNE,22,10.3,10.3,76,0.00,,,0.00,Rainwise IP-100,2013-09-09 12:34:00,
2013-09-09 08:35:00,57.3,50.0,30.11,NNE,22,7.2,12.0,76,0.00,,,0.00,Rainwise IP-100,2013-09-09 12:35:00,
2013-09-09 08:36:00,57.3,50.0,30.10,NNE,22,7.2,12.0,76,0.00,,,0.00,Rainwise IP-100,2013-09-09 12:36:00,
2013-09-09 08:39:00,57.3,50.0,30.11,NNE,22,8.2,12.0,76,0.00,,,0.00,Rainwise IP-100,2013-09-09 12:39:00,
2013-09-09 08:40:00,57.3,50.0,30.11,NE,45,9.3,11.0,76,0.00,,,0.00,Rainwise IP-100,2013-09-09 12:40:00,
2013-09-09 08:41:00,57.3,50.0,30.11,NNE,22,6.8,11.0,76,0.00,,,0.00,Rainwise IP-100,2013-09-09 12:41:00,
2013-09-09 08:44:00,57.2,50.0,30.11,NNE,22,11.7,12.0,76,0.00,,,0.00,Rainwise IP-100,2013-09-09 12:44:00,
2013-09-09 08:45:00,57.3,50.0,30.11,ENE,67,6.8,12.0,76,0.00,,,0.00,Rainwise IP-100,2013-09-09 12:45:00,
2013-09-09 08:47:00,57.3,50.0,30.11,NE,45,10.0,12.0,76,0.00,,,0.00,Rainwise IP-100,2013-09-09 12:47:00,
2013-09-09 08:49:00,57.3,50.0,30.11,NNE,22,8.9,11.0,76,0.00,,,0.00,Rainwise IP-100,2013-09-09 12:49:00,
2013-09-09 08:50:00,57.3,50.0,30.11,NNE,22,7.5,11.0,76,0.00,,,0.00,Rainwise IP-100,2013-09-09 12:50:00,
2013-09-09 08:51:00,57.3,50.0,30.11,NNE,22,10.0,11.0,77,0.00,,,0.00,Rainwise IP-100,2013-09-09 12:51:00,
2013-09-09 08:52:00,57.3,50.0,30.11,NNE,22,10.5,11.0,77,0.00,,,0.00,Rainwise IP-100,2013-09-09 12:52:00,
2013-09-09 08:54:00,57.4,50.0,30.11,NNE,22,7.7,11.0,77,0.00,,,0.00,Rainwise IP-100,2013-09-09 12:54:00,
2013-09-09 08:55:00,57.4,50.0,30.11,NNE,22,9.1,10.0,77,0.00,,,0.00,Rainwise IP-100,2013-09-09 12:55:00,
2013-09-09 08:56:00,57.5,50.0,30.11,NNE,22,9.3,10.0,77,0.00,,,0.00,Rainwise IP-100,2013-09-09 12:56:00,
2013-09-09 08:57:00,57.5,50.0,30.11,NNE,22,6.8,10.0,77,0.00,,,0.00,Rainwise IP-100,2013-09-09 12:57:00,
2013-09-09 08:58:00,57.5,50.0,30.11,NE,45,6.5,10.0,77,0.00,,,0.00,Rainwise IP-100,2013-09-09 12:58:00,
2013-09-09 08:59:00,57.6,50.0,30.11,NNE,22,7.9,10.0,77,0.00,,,0.00,Rainwise IP-100,2013-09-09 12:59:00,
2013-09-09 09:01:00,57.8,50.0,30.11,NNE,22,8.2,10.0,77,0.00,,,0.00,Rainwise IP-100,2013-09-09 13:01:00,
2013-09-09 09:02:00,57.8,50.0,30.11,NNE,22,6.8,10.0,77,0.00,,,0.00,Rainwise IP-100,2013-09-09 13:02:00,
2013-09-09 09:04:00,58.0,50.0,30.11,NNE,22,8.2,10.0,76,0.00,,,0.00,Rainwise IP-100,2013-09-09 13:04:00,
2013-09-09 09:07:00,58.0,50.0,30.11,NNE,22,8.2,10.0,76,0.00,,,0.00,Rainwise IP-100,2013-09-09 13:07:00,
2013-09-09 09:08:00,58.0,50.0,30.11,NNE,22,5.1,10.0,76,0.00,,,0.00,Rainwise IP-100,2013-09-09 13:08:00,
2013-09-09 09:09:00,58.1,50.0,30.11,NNE,22,10.0,10.0,76,0.00,,,0.00,Rainwise IP-100,2013-09-09 13:09:00,
2013-09-09 09:10:00,58.2,50.0,30.11,NE,45,6.1,10.0,76,0.00,,,0.00,Rainwise IP-100,2013-09-09 13:10:00,
2013-09-09 09:12:00,58.2,50.0,30.11,NE,45,9.3,10.0,76,0.00,,,0.00,Rainwise IP-100,2013-09-09 13:12:00,
2013-09-09 09:13:00,58.2,50.0,30.11,NE,45,8.2,10.0,76,0.00,,,0.00,Rainwise IP-100,2013-09-09 13:13:00,
2013-09-09 09:14:00,58.2,50.0,30.11,NNE,22,6.8,10.0,76,0.00,,,0.00,Rainwise IP-100,2013-09-09 13:14:00,
2013-09-09 09:15:00,58.3,50.0,30.12,NNE,22,7.5,9.0,76,0.00,,,0.00,Rainwise IP-100,2013-09-09 13:15:00,
2013-09-09 09:18:00,58.5,51.0,30.11,NE,45,5.1,10.0,75,0.00,,,0.00,Rainwise IP-100,2013-09-09 13:18:00,
2013-09-09 09:20:00,58.6,51.0,30.11,NE,45,5.6,10.0,75,0.00,,,0.00,Rainwise IP-100,2013-09-09 13:20:00,
2013-09-09 09:21:00,58.7,51.0,30.12,ENE,67,4.4,10.0,75,0.00,,,0.00,Rainwise IP-100,2013-09-09 13:21:00,
2013-09-09 09:23:00,58.8,51.0,30.12,NE,45,4.4,8.0,75,0.00,,,0.00,Rainwise IP-100,2013-09-09 13:23:00,
2013-09-09 09:24:00,58.8,51.0,30.12,East,90,8.4,8.4,75,0.00,,,0.00,Rainwise IP-100,2013-09-09 13:24:00,
2013-09-09 09:25:00,58.9,50.0,30.11,NNE,22,3.3,8.0,74,0.00,,,0.00,Rainwise IP-100,2013-09-09 13:25:00,
2013-09-09 09:27:00,59.0,50.0,30.11,ENE,67,9.3,9.3,74,0.00,,,0.00,Rainwise IP-100,2013-09-09 13:27:00,
2013-09-09 09:29:00,59.1,50.0,30.12,NE,45,8.4,11.0,74,0.00,,,0.00,Rainwise IP-100,2013-09-09 13:29:00,
2013-09-09 09:30:00,59.1,50.0,30.12,NNE,22,6.8,11.0,74,0.00,,,0.00,Rainwise IP-100,2013-09-09 13:30:00,
2013-09-09 09:31:00,59.1,50.0,30.12,NE,45,7.5,11.0,74,0.00,,,0.00,Rainwise IP-100,2013-09-09 13:31:00,
2013-09-09 09:34:00,59.1,50.0,30.11,NE,45,7.0,11.0,73,0.00,,,0.00,Rainwise IP-100,2013-09-09 13:34:00,
2013-09-09 09:35:00,59.3,50.0,30.12,NNE,22,7.5,9.0,73,0.00,,,0.00,Rainwise IP-100,2013-09-09 13:35:00,
2013-09-09 09:36:00,59.3,50.0,30.12,NE,45,8.2,9.0,73,0.00,,,0.00,Rainwise IP-100,2013-09-09 13:36:00,
2013-09-09 09:39:00,59.4,50.0,30.12,NE,45,4.4,11.0,72,0.00,,,0.00,Rainwise IP-100,2013-09-09 13:39:00,
2013-09-09 09:40:00,59.4,50.0,30.12,NE,45,5.6,11.0,72,0.00,,,0.00,Rainwise IP-100,2013-09-09 13:40:00,
2013-09-09 09:41:00,59.4,50.0,30.12,ENE,67,5.1,11.0,72,0.00,,,0.00,Rainwise IP-100,2013-09-09 13:41:00,
2013-09-09 09:42:00,59.7,50.0,30.12,East,90,3.3,11.0,71,0.00,,,0.00,Rainwise IP-100,2013-09-09 13:42:00,
2013-09-09 09:44:00,59.9,50.0,30.12,ENE,67,6.3,8.0,70,0.00,,,0.00,Rainwise IP-100,2013-09-09 13:44:00,
2013-09-09 09:46:00,59.9,50.0,30.12,ENE,67,3.5,8.0,69,0.00,,,0.00,Rainwise IP-100,2013-09-09 13:46:00,
2013-09-09 09:47:00,60.0,49.0,30.12,ENE,67,8.9,10.0,68,0.00,,,0.00,Rainwise IP-100,2013-09-09 13:47:00,
2013-09-09 09:49:00,60.0,49.0,30.12,ENE,67,6.5,10.0,68,0.00,,,0.00,Rainwise IP-100,2013-09-09 13:49:00,
2013-09-09 09:51:00,60.0,49.0,30.12,ENE,67,3.5,10.0,67,0.00,,,0.00,Rainwise IP-100,2013-09-09 13:51:00,
2013-09-09 09:54:00,60.0,49.0,30.12,ENE,67,5.4,7.0,67,0.00,,,0.00,Rainwise IP-100,2013-09-09 13:54:00,
2013-09-09 09:55:00,60.0,49.0,30.12,ENE,67,5.8,7.0,67,0.00,,,0.00,Rainwise IP-100,2013-09-09 13:55:00,
2013-09-09 09:56:00,60.0,49.0,30.12,ENE,67,6.3,9.0,67,0.00,,,0.00,Rainwise IP-100,2013-09-09 13:56:00,
2013-09-09 09:57:00,60.0,49.0,30.13,East,90,7.7,9.0,67,0.00,,,0.00,Rainwise IP-100,2013-09-09 13:57:00,
2013-09-09 09:59:00,60.2,49.0,30.12,SSE,157,2.1,9.0,67,0.00,,,0.00,Rainwise IP-100,2013-09-09 13:59:00,
2013-09-09 10:02:00,60.5,50.0,30.12,ESE,112,6.8,8.0,67,0.00,,,0.00,Rainwise IP-100,2013-09-09 14:02:00,
2013-09-09 10:03:00,60.6,50.0,30.12,East,90,5.8,7.0,67,0.00,,,0.00,Rainwise IP-100,2013-09-09 14:03:00,
2013-09-09 10:04:00,60.6,50.0,30.12,ENE,67,4.9,8.0,67,0.00,,,0.00,Rainwise IP-100,2013-09-09 14:04:00,
2013-09-09 10:05:00,60.7,50.0,30.12,ENE,67,6.3,8.0,67,0.00,,,0.00,Rainwise IP-100,2013-09-09 14:05:00,
2013-09-09 10:07:00,60.8,50.0,30.12,ENE,67,7.2,9.0,67,0.00,,,0.00,Rainwise IP-100,2013-09-09 14:07:00,
2013-09-09 10:08:00,60.8,50.0,30.12,SE,135,5.1,9.0,67,0.00,,,0.00,Rainwise IP-100,2013-09-09 14:08:00,
2013-09-09 10:10:00,60.8,50.0,30.12,ESE,112,6.1,9.0,67,0.00,,,0.00,Rainwise IP-100,2013-09-09 14:10:00,
2013-09-09 10:11:00,60.8,50.0,30.12,ESE,112,1.2,9.0,67,0.00,,,0.00,Rainwise IP-100,2013-09-09 14:11:00,
2013-09-09 10:12:00,60.7,50.0,30.12,SE,135,1.6,8.0,67,0.00,,,0.00,Rainwise IP-100,2013-09-09 14:12:00,
2013-09-09 10:13:00,60.7,50.0,30.12,SE,135,6.3,8.0,67,0.00,,,0.00,Rainwise IP-100,2013-09-09 14:13:00,
2013-09-09 10:15:00,60.8,50.0,30.12,ESE,112,7.7,9.0,67,0.00,,,0.00,Rainwise IP-100,2013-09-09 14:15:00,
2013-09-09 10:16:00,60.9,50.0,30.12,ESE,112,7.5,9.0,67,0.00,,,0.00,Rainwise IP-100,2013-09-09 14:16:00,
2013-09-09 10:17:00,60.9,50.0,30.12,ESE,112,5.6,9.0,67,0.00,,,0.00,Rainwise IP-100,2013-09-09 14:17:00,
2013-09-09 10:18:00,61.0,50.0,30.12,ENE,67,2.1,9.0,67,0.00,,,0.00,Rainwise IP-100,2013-09-09 14:18:00,
2013-09-09 10:19:00,61.0,50.0,30.11,East,90,8.2,9.0,67,0.00,,,0.00,Rainwise IP-100,2013-09-09 14:19:00,
2013-09-09 10:21:00,61.0,50.0,30.11,ENE,67,7.7,9.0,67,0.00,,,0.00,Rainwise IP-100,2013-09-09 14:21:00,
2013-09-09 10:22:00,60.9,50.0,30.11,ENE,67,4.4,9.0,67,0.00,,,0.00,Rainwise IP-100,2013-09-09 14:22:00,
2013-09-09 10:23:00,60.8,50.0,30.11,ENE,67,1.2,9.0,67,0.00,,,0.00,Rainwise IP-100,2013-09-09 14:23:00,
2013-09-09 10:24:00,60.7,50.0,30.12,SSE,157,2.1,9.0,67,0.00,,,0.00,Rainwise IP-100,2013-09-09 14:24:00,
2013-09-09 10:25:00,60.7,50.0,30.12,NE,45,1.2,8.0,67,0.00,,,0.00,Rainwise IP-100,2013-09-09 14:25:00,
2013-09-09 10:26:00,60.6,50.0,30.11,East,90,8.9,8.9,67,0.00,,,0.00,Rainwise IP-100,2013-09-09 14:26:00,
2013-09-09 10:28:00,60.6,50.0,30.12,ENE,67,4.9,9.0,68,0.00,,,0.00,Rainwise IP-100,2013-09-09 14:28:00,
2013-09-09 10:30:00,60.6,50.0,30.12,East,90,6.8,9.0,68,0.00,,,0.00,Rainwise IP-100,2013-09-09 14:30:00,
2013-09-09 10:31:00,60.7,50.0,30.11,ESE,112,6.1,10.0,68,0.00,,,0.00,Rainwise IP-100,2013-09-09 14:31:00,
2013-09-09 10:33:00,60.9,50.0,30.11,East,90,6.1,10.0,68,0.00,,,0.00,Rainwise IP-100,2013-09-09 14:33:00,
2013-09-09 10:34:00,60.9,50.0,30.11,ESE,112,5.1,10.0,68,0.00,,,0.00,Rainwise IP-100,2013-09-09 14:34:00,
2013-09-09 10:35:00,60.9,50.0,30.11,SE,135,5.1,10.0,68,0.00,,,0.00,Rainwise IP-100,2013-09-09 14:35:00,
2013-09-09 10:36:00,60.9,50.0,30.11,SSE,157,4.9,9.0,68,0.00,,,0.00,Rainwise IP-100,2013-09-09 14:36:00,
2013-09-09 10:38:00,61.1,50.0,30.11,East,90,6.3,9.0,68,0.00,,,0.00,Rainwise IP-100,2013-09-09 14:38:00,
2013-09-09 10:39:00,61.2,50.0,30.12,ESE,112,0.0,9.0,68,0.00,,,0.00,Rainwise IP-100,2013-09-09 14:39:00,
2013-09-09 10:40:00,61.3,50.0,30.11,ESE,112,4.7,9.0,68,0.00,,,0.00,Rainwise IP-100,2013-09-09 14:40:00,
2013-09-09 10:41:00,61.4,50.0,30.11,SE,135,6.1,6.1,68,0.00,,,0.00,Rainwise IP-100,2013-09-09 14:41:00,
2013-09-09 10:43:00,61.6,50.0,30.11,SSW,202,3.7,7.0,68,0.00,,,0.00,Rainwise IP-100,2013-09-09 14:43:00,
2013-09-09 10:45:00,61.7,50.0,30.11,SE,135,6.3,8.0,68,0.00,,,0.00,Rainwise IP-100,2013-09-09 14:45:00,
2013-09-09 10:46:00,61.9,51.0,30.11,SE,135,7.2,10.0,67,0.00,,,0.00,Rainwise IP-100,2013-09-09 14:46:00,
2013-09-09 10:47:00,61.9,51.0,30.11,South,180,6.1,10.0,67,0.00,,,0.00,Rainwise IP-100,2013-09-09 14:47:00,
2013-09-09 10:48:00,61.9,51.0,30.11,SE,135,4.9,10.0,67,0.00,,,0.00,Rainwise IP-100,2013-09-09 14:48:00,
2013-09-09 10:50:00,61.9,51.0,30.11,ESE,112,4.0,10.0,67,0.00,,,0.00,Rainwise IP-100,2013-09-09 14:50:00,
2013-09-09 10:51:00,61.9,51.0,30.11,SE,135,3.5,10.0,67,0.00,,,0.00,Rainwise IP-100,2013-09-09 14:51:00,
2013-09-09 10:52:00,61.9,51.0,30.11,SE,135,6.5,10.0,67,0.00,,,0.00,Rainwise IP-100,2013-09-09 14:52:00,
2013-09-09 10:53:00,61.8,50.0,30.11,SE,135,4.4,9.0,67,0.00,,,0.00,Rainwise IP-100,2013-09-09 14:53:00,
2013-09-09 10:54:00,61.8,50.0,30.12,SE,135,2.1,8.0,67,0.00,,,0.00,Rainwise IP-100,2013-09-09 14:54:00,
2013-09-09 10:55:00,61.8,50.0,30.11,SSE,157,7.0,8.0,67,0.00,,,0.00,Rainwise IP-100,2013-09-09 14:55:00,
2013-09-09 10:56:00,61.8,50.0,30.11,SE,135,2.3,8.0,67,0.00,,,0.00,Rainwise IP-100,2013-09-09 14:56:00,
2013-09-09 10:57:00,61.8,50.0,30.11,SSE,157,3.7,7.0,67,0.00,,,0.00,Rainwise IP-100,2013-09-09 14:57:00,
2013-09-09 10:58:00,61.8,50.0,30.11,SE,135,8.9,8.9,67,0.00,,,0.00,Rainwise IP-100,2013-09-09 14:58:00,
2013-09-09 10:59:00,61.8,50.0,30.11,South,180,0.0,8.0,67,0.00,,,0.00,Rainwise IP-100,2013-09-09 14:59:00,
2013-09-09 11:00:00,61.8,50.0,30.11,South,180,2.8,8.0,67,0.00,,,0.00,Rainwise IP-100,2013-09-09 15:00:00,
2013-09-09 11:01:00,61.9,51.0,30.11,SSE,157,8.6,8.6,67,0.00,,,0.00,Rainwise IP-100,2013-09-09 15:01:00,
2013-09-09 11:03:00,61.9,51.0,30.11,East,90,7.5,10.0,67,0.00,,,0.00,Rainwise IP-100,2013-09-09 15:03:00,
2013-09-09 11:04:00,61.9,51.0,30.11,SSE,157,3.7,10.0,67,0.00,,,0.00,Rainwise IP-100,2013-09-09 15:04:00,
2013-09-09 11:05:00,61.9,51.0,30.11,SSE,157,2.6,10.0,67,0.00,,,0.00,Rainwise IP-100,2013-09-09 15:05:00,
2013-09-09 11:06:00,61.9,51.0,30.11,SSW,202,0.0,10.0,67,0.00,,,0.00,Rainwise IP-100,2013-09-09 15:06:00,
2013-09-09 11:09:00,62.2,51.0,30.12,SE,135,6.1,7.0,67,0.00,,,0.00,Rainwise IP-100,2013-09-09 15:09:00,
2013-09-09 11:10:00,62.2,51.0,30.12,ESE,112,7.2,7.2,67,0.00,,,0.00,Rainwise IP-100,2013-09-09 15:10:00,
2013-09-09 11:11:00,62.2,51.0,30.12,SE,135,5.8,6.0,67,0.00,,,0.00,Rainwise IP-100,2013-09-09 15:11:00,
2013-09-09 11:12:00,62.4,51.0,30.11,ESE,112,3.3,9.0,67,0.00,,,0.00,Rainwise IP-100,2013-09-09 15:12:00,
2013-09-09 11:14:00,62.5,51.0,30.12,SSE,157,5.1,9.0,67,0.00,,,0.00,Rainwise IP-100,2013-09-09 15:14:00,
2013-09-09 11:15:00,62.6,51.0,30.12,SSE,157,0.0,9.0,67,0.00,,,0.00,Rainwise IP-100,2013-09-09 15:15:00,
2013-09-09 11:16:00,62.6,51.0,30.12,SSE,157,4.4,9.0,67,0.00,,,0.00,Rainwise IP-100,2013-09-09 15:16:00,
2013-09-09 11:17:00,62.6,51.0,30.11,South,180,5.1,9.0,67,0.00,,,0.00,Rainwise IP-100,2013-09-09 15:17:00,
2013-09-09 11:19:00,62.6,51.0,30.11,SSE,157,3.5,8.0,67,0.00,,,0.00,Rainwise IP-100,2013-09-09 15:19:00,
2013-09-09 11:20:00,62.6,51.0,30.11,SSE,157,2.3,8.0,67,0.00,,,0.00,Rainwise IP-100,2013-09-09 15:20:00,
2013-09-09 11:21:00,62.6,51.0,30.11,SE,135,3.3,10.0,66,0.00,,,0.00,Rainwise IP-100,2013-09-09 15:21:00,
2013-09-09 11:22:00,62.6,51.0,30.11,SSE,157,2.3,10.0,67,0.00,,,0.00,Rainwise IP-100,2013-09-09 15:22:00,
2013-09-09 11:24:00,62.7,51.0,30.12,SSE,157,5.8,10.0,66,0.00,,,0.00,Rainwise IP-100,2013-09-09 15:24:00,
2013-09-09 11:25:00,62.7,51.0,30.12,SE,135,2.3,10.0,66,0.00,,,0.00,Rainwise IP-100,2013-09-09 15:25:00,
2013-09-09 11:27:00,62.7,51.0,30.11,South,180,9.3,10.0,66,0.00,,,0.00,Rainwise IP-100,2013-09-09 15:27:00,
2013-09-09 11:28:00,62.7,50.0,30.11,SSE,157,7.2,10.0,65,0.00,,,0.00,Rainwise IP-100,2013-09-09 15:28:00,
2013-09-09 11:29:00,62.7,50.0,30.11,ESE,112,5.8,10.0,65,0.00,,,0.00,Rainwise IP-100,2013-09-09 15:29:00,
2013-09-09 11:30:00,62.7,50.0,30.11,SE,135,3.0,9.0,65,0.00,,,0.00,Rainwise IP-100,2013-09-09 15:30:00,
2013-09-09 11:32:00,62.7,50.0,30.11,SE,135,1.9,9.0,65,0.00,,,0.00,Rainwise IP-100,2013-09-09 15:32:00,
2013-09-09 11:33:00,62.7,50.0,30.12,SE,135,5.8,8.0,65,0.00,,,0.00,Rainwise IP-100,2013-09-09 15:33:00,
2013-09-09 11:35:00,62.6,51.0,30.11,SSE,157,6.5,8.0,66,0.00,,,0.00,Rainwise IP-100,2013-09-09 15:35:00,
2013-09-09 11:36:00,62.6,51.0,30.12,SE,135,1.4,8.0,66,0.00,,,0.00,Rainwise IP-100,2013-09-09 15:36:00,
2013-09-09 11:37:00,62.6,51.0,30.12,SSW,202,5.8,8.0,66,0.00,,,0.00,Rainwise IP-100,2013-09-09 15:37:00,
2013-09-09 11:39:00,62.6,51.0,30.11,SW,225,5.6,7.0,66,0.00,,,0.00,Rainwise IP-100,2013-09-09 15:39:00,
2013-09-09 11:41:00,62.6,51.0,30.12,South,180,10.5,11.0,67,0.00,,,0.00,Rainwise IP-100,2013-09-09 15:41:00,
2013-09-09 11:42:00,62.6,51.0,30.12,SSW,202,2.6,11.0,67,0.00,,,0.00,Rainwise IP-100,2013-09-09 15:42:00,
2013-09-09 11:45:00,62.7,51.0,30.11,SSW,202,6.1,11.0,67,0.00,,,0.00,Rainwise IP-100,2013-09-09 15:45:00,
2013-09-09 11:46:00,62.7,51.0,30.12,South,180,7.5,10.0,66,0.00,,,0.00,Rainwise IP-100,2013-09-09 15:46:00,
2013-09-09 11:47:00,62.7,51.0,30.12,SSW,202,7.9,10.0,66,0.00,,,0.00,Rainwise IP-100,2013-09-09 15:47:00,
2013-09-09 11:50:00,62.5,51.0,30.12,SSE,157,6.5,9.0,66,0.00,,,0.00,Rainwise IP-100,2013-09-09 15:50:00,
2013-09-09 11:51:00,62.5,51.0,30.11,SSE,157,8.9,10.0,67,0.00,,,0.00,Rainwise IP-100,2013-09-09 15:51:00,
2013-09-09 11:52:00,62.5,51.0,30.11,SSE,157,6.5,10.0,67,0.00,,,0.00,Rainwise IP-100,2013-09-09 15:52:00,
2013-09-09 11:53:00,62.5,51.0,30.11,SSW,202,4.9,10.0,67,0.00,,,0.00,Rainwise IP-100,2013-09-09 15:53:00,
2013-09-09 11:55:00,62.4,51.0,30.11,SE,135,7.5,10.0,67,0.00,,,0.00,Rainwise IP-100,2013-09-09 15:55:00,
2013-09-09 11:56:00,62.4,51.0,30.12,South,180,4.9,10.0,67,0.00,,,0.00,Rainwise IP-100,2013-09-09 15:56:00,
2013-09-09 11:57:00,62.4,51.0,30.12,SE,135,7.7,10.0,67,0.00,,,0.00,Rainwise IP-100,2013-09-09 15:57:00,
2013-09-09 11:58:00,62.5,51.0,30.11,SSW,202,5.6,10.0,67,0.00,,,0.00,Rainwise IP-100,2013-09-09 15:58:00,
2013-09-09 11:59:00,62.5,51.0,30.11,SSW,202,7.0,10.0,67,0.00,,,0.00,Rainwise IP-100,2013-09-09 15:59:00,
2013-09-09 12:00:00,62.5,51.0,30.11,SSE,157,5.4,9.0,67,0.00,,,0.00,Rainwise IP-100,2013-09-09 16:00:00,
2013-09-09 12:01:00,62.5,51.0,30.11,South,180,4.9,9.0,67,0.00,,,0.00,Rainwise IP-100,2013-09-09 16:01:00,
2013-09-09 12:02:00,62.5,51.0,30.11,ESE,112,4.4,9.0,67,0.00,,,0.00,Rainwise IP-100,2013-09-09 16:02:00,
2013-09-09 12:04:00,62.6,51.0,30.12,SSW,202,5.1,9.0,67,0.00,,,0.00,Rainwise IP-100,2013-09-09 16:04:00,
2013-09-09 12:05:00,62.6,51.0,30.11,SSE,157,9.1,10.0,67,0.00,,,0.00,Rainwise IP-100,2013-09-09 16:05:00,
2013-09-09 12:06:00,62.6,51.0,30.12,South,180,8.4,10.0,67,0.00,,,0.00,Rainwise IP-100,2013-09-09 16:06:00,
2013-09-09 12:08:00,62.6,51.0,30.11,SSW,202,8.9,10.0,67,0.00,,,0.00,Rainwise IP-100,2013-09-09 16:08:00,
2013-09-09 12:09:00,62.5,51.0,30.11,SSW,202,10.3,11.0,67,0.00,,,0.00,Rainwise IP-100,2013-09-09 16:09:00,
2013-09-09 12:10:00,62.4,51.0,30.11,South,180,9.1,11.0,67,0.00,,,0.00,Rainwise IP-100,2013-09-09 16:10:00,
2013-09-09 12:11:00,62.3,51.0,30.11,South,180,5.1,11.0,67,0.00,,,0.00,Rainwise IP-100,2013-09-09 16:11:00,
2013-09-09 12:12:00,62.3,51.0,30.11,SW,225,7.5,11.0,67,0.00,,,0.00,Rainwise IP-100,2013-09-09 16:12:00,
2013-09-09 12:13:00,62.2,51.0,30.11,SSW,202,5.8,11.0,67,0.00,,,0.00,Rainwise IP-100,2013-09-09 16:13:00,
2013-09-09 12:14:00,62.1,51.0,30.11,SSW,202,7.7,10.0,67,0.00,,,0.00,Rainwise IP-100,2013-09-09 16:14:00,
2013-09-09 12:15:00,62.1,51.0,30.11,SSW,202,9.8,10.0,67,0.00,,,0.00,Rainwise IP-100,2013-09-09 16:15:00,
2013-09-09 12:16:00,62.1,51.0,30.11,SSW,202,8.6,10.0,67,0.00,,,0.00,Rainwise IP-100,2013-09-09 16:16:00,
2013-09-09 12:17:00,62.0,51.0,30.11,SW,225,8.9,11.0,68,0.00,,,0.00,Rainwise IP-100,2013-09-09 16:17:00,
2013-09-09 12:18:00,61.9,51.0,30.11,SW,225,8.6,11.0,68,0.00,,,0.00,Rainwise IP-100,2013-09-09 16:18:00,
2013-09-09 12:19:00,61.8,50.0,30.11,WSW,247,7.9,11.0,68,0.00,,,0.00,Rainwise IP-100,2013-09-09 16:19:00,
2013-09-09 12:21:00,61.8,50.0,30.11,SSW,202,6.1,9.0,68,0.00,,,0.00,Rainwise IP-100,2013-09-09 16:21:00,
2013-09-09 12:22:00,61.8,50.0,30.11,SW,225,10.5,10.5,68,0.00,,,0.00,Rainwise IP-100,2013-09-09 16:22:00,
2013-09-09 12:23:00,61.8,50.0,30.11,SW,225,9.3,11.0,68,0.00,,,0.00,Rainwise IP-100,2013-09-09 16:23:00,
2013-09-09 12:24:00,61.7,50.0,30.11,SSW,202,10.5,11.0,68,0.00,,,0.00,Rainwise IP-100,2013-09-09 16:24:00,
2013-09-09 12:25:00,61.7,50.0,30.11,SSW,202,8.4,11.0,68,0.00,,,0.00,Rainwise IP-100,2013-09-09 16:25:00,
2013-09-09 12:27:00,61.7,50.0,30.11,SSW,202,10.7,11.0,68,0.00,,,0.00,Rainwise IP-100,2013-09-09 16:27:00,
2013-09-09 12:28:00,61.7,50.0,30.11,SSW,202,5.4,12.0,68,0.00,,,0.00,Rainwise IP-100,2013-09-09 16:28:00,
2013-09-09 12:29:00,61.7,50.0,30.11,SSW,202,6.1,12.0,68,0.00,,,0.00,Rainwise IP-100,2013-09-09 16:29:00,
2013-09-09 12:30:00,61.7,50.0,30.11,SSW,202,8.2,12.0,68,0.00,,,0.00,Rainwise IP-100,2013-09-09 16:30:00,
2013-09-09 12:32:00,61.7,50.0,30.11,SSW,202,7.7,12.0,67,0.00,,,0.00,Rainwise IP-100,2013-09-09 16:32:00,
2013-09-09 12:33:00,61.7,50.0,30.11,SSW,202,9.3,11.0,67,0.00,,,0.00,Rainwise IP-100,2013-09-09 16:33:00,
2013-09-09 12:35:00,61.7,50.0,30.11,SSW,202,5.4,11.0,66,0.00,,,0.00,Rainwise IP-100,2013-09-09 16:35:00,
2013-09-09 12:36:00,61.7,50.0,30.11,SW,225,9.3,11.0,66,0.00,,,0.00,Rainwise IP-100,2013-09-09 16:36:00,
2013-09-09 12:38:00,61.7,50.0,30.11,SSW,202,6.8,10.0,65,0.00,,,0.00,Rainwise IP-100,2013-09-09 16:38:00,
2013-09-09 12:40:00,61.7,50.0,30.11,SSW,202,6.8,11.0,65,0.00,,,0.00,Rainwise IP-100,2013-09-09 16:40:00,
2013-09-09 12:41:00,61.8,50.0,30.11,SSW,202,6.3,11.0,65,0.00,,,0.00,Rainwise IP-100,2013-09-09 16:41:00,
2013-09-09 12:42:00,61.8,50.0,30.11,SW,225,8.9,11.0,66,0.00,,,0.00,Rainwise IP-100,2013-09-09 16:42:00,
2013-09-09 12:43:00,61.8,50.0,30.11,SSW,202,7.5,11.0,66,0.00,,,0.00,Rainwise IP-100,2013-09-09 16:43:00,
2013-09-09 12:46:00,61.9,51.0,30.11,SW,225,10.5,11.0,67,0.00,,,0.00,Rainwise IP-100,2013-09-09 16:46:00,
2013-09-09 12:47:00,61.9,51.0,30.11,SSW,202,8.6,10.0,67,0.00,,,0.00,Rainwise IP-100,2013-09-09 16:47:00,
2013-09-09 12:48:00,62.0,51.0,30.11,South,180,7.5,11.0,67,0.00,,,0.00,Rainwise IP-100,2013-09-09 16:48:00,
2013-09-09 12:49:00,62.0,51.0,30.11,South,180,9.1,11.0,67,0.00,,,0.00,Rainwise IP-100,2013-09-09 16:49:00,
2013-09-09 12:51:00,62.0,51.0,30.11,SW,225,6.3,11.0,67,0.00,,,0.00,Rainwise IP-100,2013-09-09 16:51:00,
2013-09-09 12:53:00,62.0,51.0,30.11,SSW,202,6.1,11.0,67,0.00,,,0.00,Rainwise IP-100,2013-09-09 16:53:00,
2013-09-09 12:54:00,62.0,51.0,30.11,SSW,202,9.6,11.0,67,0.00,,,0.00,Rainwise IP-100,2013-09-09 16:54:00,
2013-09-09 12:58:00,62.0,50.0,30.11,SW,225,7.7,11.0,65,0.00,,,0.00,Rainwise IP-100,2013-09-09 16:58:00,
2013-09-09 12:59:00,62.0,50.0,30.11,SW,225,7.2,11.0,65,0.00,,,0.00,Rainwise IP-100,2013-09-09 16:59:00,
2013-09-09 13:00:00,62.0,50.0,30.10,SW,225,8.6,11.0,65,0.00,,,0.00,Rainwise IP-100,2013-09-09 17:00:00,
2013-09-09 13:04:00,62.2,50.0,30.11,SSE,157,5.6,10.0,65,0.00,,,0.00,Rainwise IP-100,2013-09-09 17:04:00,
2013-09-09 13:05:00,62.2,50.0,30.11,SSE,157,5.8,10.0,65,0.00,,,0.00,Rainwise IP-100,2013-09-09 17:05:00,
2013-09-09 13:06:00,62.3,50.0,30.11,SSW,202,7.2,10.0,65,0.00,,,0.00,Rainwise IP-100,2013-09-09 17:06:00,
2013-09-09 13:09:00,62.4,50.0,30.11,South,180,7.7,11.0,65,0.00,,,0.00,Rainwise IP-100,2013-09-09 17:09:00,
2013-09-09 13:10:00,62.4,50.0,30.11,SSW,202,7.2,11.0,65,0.00,,,0.00,Rainwise IP-100,2013-09-09 17:10:00,
2013-09-09 13:11:00,62.4,50.0,30.11,South,180,9.6,11.0,65,0.00,,,0.00,Rainwise IP-100,2013-09-09 17:11:00,
2013-09-09 13:13:00,62.5,50.0,30.11,SSW,202,8.6,10.0,65,0.00,,,0.00,Rainwise IP-100,2013-09-09 17:13:00,
2013-09-09 13:14:00,62.5,50.0,30.10,SSW,202,7.5,10.0,65,0.00,,,0.00,Rainwise IP-100,2013-09-09 17:14:00,
2013-09-09 13:15:00,62.4,50.0,30.11,South,180,5.8,10.0,65,0.00,,,0.00,Rainwise IP-100,2013-09-09 17:15:00,
2013-09-09 13:16:00,62.4,50.0,30.11,South,180,7.9,10.0,65,0.00,,,0.00,Rainwise IP-100,2013-09-09 17:16:00,
2013-09-09 13:19:00,62.4,50.0,30.11,South,180,8.2,11.0,65,0.00,,,0.00,Rainwise IP-100,2013-09-09 17:19:00,
2013-09-09 13:20:00,62.4,50.0,30.11,South,180,8.9,11.0,65,0.00,,,0.00,Rainwise IP-100,2013-09-09 17:20:00,
2013-09-09 13:21:00,62.4,50.0,30.10,SSW,202,5.8,11.0,65,0.00,,,0.00,Rainwise IP-100,2013-09-09 17:21:00,
2013-09-09 13:25:00,62.4,50.0,30.10,South,180,7.0,10.0,65,0.00,,,0.00,Rainwise IP-100,2013-09-09 17:25:00,
2013-09-09 13:26:00,62.4,50.0,30.10,South,180,6.3,10.0,65,0.00,,,0.00,Rainwise IP-100,2013-09-09 17:26:00,
2013-09-09 13:27:00,62.4,50.0,30.10,SSW,202,8.9,11.0,65,0.00,,,0.00,Rainwise IP-100,2013-09-09 17:27:00,
2013-09-09 13:28:00,62.4,50.0,30.10,South,180,9.3,12.0,65,0.00,,,0.00,Rainwise IP-100,2013-09-09 17:28:00,
2013-09-09 13:31:00,62.4,50.0,30.10,SSW,202,6.3,12.0,65,0.00,,,0.00,Rainwise IP-100,2013-09-09 17:31:00,
2013-09-09 13:32:00,62.4,50.0,30.10,SSW,202,4.4,12.0,65,0.00,,,0.00,Rainwise IP-100,2013-09-09 17:32:00,
2013-09-09 13:33:00,62.5,50.0,30.10,SW,225,8.9,11.0,65,0.00,,,0.00,Rainwise IP-100,2013-09-09 17:33:00,
2013-09-09 13:37:00,62.5,51.0,30.10,SSW,202,11.4,11.4,66,0.00,,,0.00,Rainwise IP-100,2013-09-09 17:37:00,
2013-09-09 13:38:00,62.5,51.0,30.10,SSW,202,9.8,11.0,66,0.00,,,0.00,Rainwise IP-100,2013-09-09 17:38:00,
2013-09-09 13:42:00,62.7,51.0,30.10,SSW,202,7.5,11.0,66,0.00,,,0.00,Rainwise IP-100,2013-09-09 17:42:00,
2013-09-09 13:43:00,62.7,50.0,30.10,SSW,202,6.1,11.0,65,0.00,,,0.00,Rainwise IP-100,2013-09-09 17:43:00,
2013-09-09 13:47:00,62.7,50.0,30.11,SSW,202,7.5,10.0,65,0.00,,,0.00,Rainwise IP-100,2013-09-09 17:47:00,
2013-09-09 13:48:00,62.7,50.0,30.10,SSW,202,7.2,10.0,65,0.00,,,0.00,Rainwise IP-100,2013-09-09 17:48:00,
2013-09-09 13:49:00,62.7,50.0,30.11,SSW,202,9.1,9.1,65,0.00,,,0.00,Rainwise IP-100,2013-09-09 17:49:00,
2013-09-09 13:50:00,62.8,51.0,30.10,SW,225,7.5,10.0,66,0.00,,,0.00,Rainwise IP-100,2013-09-09 17:50:00,
2013-09-09 13:52:00,62.7,51.0,30.10,SSW,202,7.5,10.0,66,0.00,,,0.00,Rainwise IP-100,2013-09-09 17:52:00,
2013-09-09 13:53:00,62.8,51.0,30.10,SSW,202,6.5,11.0,66,0.00,,,0.00,Rainwise IP-100,2013-09-09 17:53:00,
2013-09-09 13:54:00,62.8,51.0,30.10,SW,225,10.0,11.0,66,0.00,,,0.00,Rainwise IP-100,2013-09-09 17:54:00,
2013-09-09 13:56:00,62.8,51.0,30.10,SSW,202,7.5,11.0,66,0.00,,,0.00,Rainwise IP-100,2013-09-09 17:56:00,
2013-09-09 13:57:00,62.8,51.0,30.10,SSW,202,4.7,11.0,66,0.00,,,0.00,Rainwise IP-100,2013-09-09 17:57:00,
2013-09-09 13:58:00,62.8,51.0,30.10,SW,225,7.9,11.0,66,0.00,,,0.00,Rainwise IP-100,2013-09-09 17:58:00,
2013-09-09 14:00:00,62.8,51.0,30.10,SSW,202,6.1,10.0,66,0.00,,,0.00,Rainwise IP-100,2013-09-09 18:00:00,
2013-09-09 14:02:00,62.9,51.0,30.10,WSW,247,6.3,10.0,66,0.00,,,0.00,Rainwise IP-100,2013-09-09 18:02:00,
2013-09-09 14:03:00,62.9,51.0,30.10,SSW,202,5.8,12.0,66,0.00,,,0.00,Rainwise IP-100,2013-09-09 18:03:00,
2013-09-09 14:04:00,62.9,51.0,30.09,SSW,202,5.8,12.0,65,0.00,,,0.00,Rainwise IP-100,2013-09-09 18:04:00,
2013-09-09 14:07:00,63.1,51.0,30.09,SSW,202,11.7,12.0,65,0.00,,,0.00,Rainwise IP-100,2013-09-09 18:07:00,
2013-09-09 14:08:00,63.1,51.0,30.09,South,180,11.4,12.0,65,0.00,,,0.00,Rainwise IP-100,2013-09-09 18:08:00,
2013-09-09 14:09:00,63.1,51.0,30.09,SSW,202,10.0,12.0,65,0.00,,,0.00,Rainwise IP-100,2013-09-09 18:09:00,
2013-09-09 14:12:00,63.1,50.0,30.09,South,180,8.9,12.0,64,0.00,,,0.00,Rainwise IP-100,2013-09-09 18:12:00,
2013-09-09 14:13:00,63.1,50.0,30.09,SSW,202,6.1,12.0,64,0.00,,,0.00,Rainwise IP-100,2013-09-09 18:13:00,
2013-09-09 14:14:00,63.1,50.0,30.10,SW,225,10.0,12.0,64,0.00,,,0.00,Rainwise IP-100,2013-09-09 18:14:00,
2013-09-09 14:17:00,63.1,50.0,30.09,SSW,202,7.9,12.0,64,0.00,,,0.00,Rainwise IP-100,2013-09-09 18:17:00,
2013-09-09 14:19:00,63.2,50.0,30.10,SSW,202,11.2,12.0,64,0.00,,,0.00,Rainwise IP-100,2013-09-09 18:19:00,
2013-09-09 14:20:00,63.2,50.0,30.10,SW,225,10.3,12.0,64,0.00,,,0.00,Rainwise IP-100,2013-09-09 18:20:00,
2013-09-09 14:23:00,63.2,50.0,30.09,SSW,202,9.1,12.0,64,0.00,,,0.00,Rainwise IP-100,2013-09-09 18:23:00,
2013-09-09 14:24:00,63.2,50.0,30.09,South,180,12.1,12.1,64,0.00,,,0.00,Rainwise IP-100,2013-09-09 18:24:00,
2013-09-09 14:25:00,63.2,50.0,30.09,SSW,202,10.3,12.0,63,0.00,,,0.00,Rainwise IP-100,2013-09-09 18:25:00,
2013-09-09 14:29:00,63.3,50.0,30.09,SSW,202,7.2,11.0,64,0.00,,,0.00,Rainwise IP-100,2013-09-09 18:29:00,
2013-09-09 14:30:00,63.2,50.0,30.09,SSW,202,11.0,11.0,64,0.00,,,0.00,Rainwise IP-100,2013-09-09 18:30:00,
2013-09-09 14:31:00,63.3,50.0,30.09,SSW,202,9.8,13.0,64,0.00,,,0.00,Rainwise IP-100,2013-09-09 18:31:00,
2013-09-09 14:32:00,63.3,50.0,30.09,SSW,202,9.6,13.0,64,0.00,,,0.00,Rainwise IP-100,2013-09-09 18:32:00,
2013-09-09 14:34:00,63.3,50.0,30.09,SSW,202,8.9,13.0,64,0.00,,,0.00,Rainwise IP-100,2013-09-09 18:34:00,
2013-09-09 14:35:00,63.3,50.0,30.09,SSW,202,11.2,13.0,64,0.00,,,0.00,Rainwise IP-100,2013-09-09 18:35:00,
2013-09-09 14:38:00,63.3,50.0,30.09,South,180,7.5,13.0,64,0.00,,,0.00,Rainwise IP-100,2013-09-09 18:38:00,
2013-09-09 14:39:00,63.3,50.0,30.09,SSW,202,8.2,13.0,64,0.00,,,0.00,Rainwise IP-100,2013-09-09 18:39:00,
2013-09-09 14:40:00,63.4,51.0,30.09,SW,225,6.8,12.0,64,0.00,,,0.00,Rainwise IP-100,2013-09-09 18:40:00,
2013-09-09 14:41:00,63.4,51.0,30.09,WSW,247,6.8,12.0,64,0.00,,,0.00,Rainwise IP-100,2013-09-09 18:41:00,
2013-09-09 14:43:00,63.3,50.0,30.09,SSW,202,10.7,11.0,64,0.00,,,0.00,Rainwise IP-100,2013-09-09 18:43:00,
2013-09-09 14:45:00,63.3,50.0,30.09,SW,225,13.8,14.0,64,0.00,,,0.00,Rainwise IP-100,2013-09-09 18:45:00,
2013-09-09 14:46:00,63.3,50.0,30.09,SW,225,10.0,14.0,64,0.00,,,0.00,Rainwise IP-100,2013-09-09 18:46:00,
2013-09-09 14:47:00,63.3,50.0,30.09,SW,225,10.5,14.0,64,0.00,,,0.00,Rainwise IP-100,2013-09-09 18:47:00,
2013-09-09 14:48:00,63.3,50.0,30.09,SSW,202,11.4,14.0,64,0.00,,,0.00,Rainwise IP-100,2013-09-09 18:48:00,
2013-09-09 14:50:00,63.2,50.0,30.09,SW,225,8.9,13.0,64,0.00,,,0.00,Rainwise IP-100,2013-09-09 18:50:00,
2013-09-09 14:51:00,63.2,50.0,30.09,SW,225,9.6,12.0,64,0.00,,,0.00,Rainwise IP-100,2013-09-09 18:51:00,
2013-09-09 14:52:00,63.2,50.0,30.09,SW,225,7.5,12.0,64,0.00,,,0.00,Rainwise IP-100,2013-09-09 18:52:00,
2013-09-09 14:53:00,63.2,50.0,30.09,SW,225,10.3,13.0,64,0.00,,,0.00,Rainwise IP-100,2013-09-09 18:53:00,
2013-09-09 14:54:00,63.2,51.0,30.09,SSW,202,11.0,13.0,65,0.00,,,0.00,Rainwise IP-100,2013-09-09 18:54:00,
2013-09-09 14:56:00,63.1,51.0,30.09,SSW,202,9.8,13.0,65,0.00,,,0.00,Rainwise IP-100,2013-09-09 18:56:00,
2013-09-09 14:57:00,63.1,51.0,30.09,SW,225,10.7,13.0,65,0.00,,,0.00,Rainwise IP-100,2013-09-09 18:57:00,
2013-09-09 14:58:00,63.1,51.0,30.09,SW,225,8.6,13.0,65,0.00,,,0.00,Rainwise IP-100,2013-09-09 18:58:00,
2013-09-09 14:59:00,63.1,51.0,30.09,SW,225,9.3,12.0,66,0.00,,,0.00,Rainwise IP-100,2013-09-09 18:59:00,
2013-09-09 15:01:00,63.1,51.0,30.09,SSW,202,8.2,12.0,66,0.00,,,0.00,Rainwise IP-100,2013-09-09 19:01:00,
2013-09-09 15:02:00,63.1,51.0,30.09,SSW,202,8.4,12.0,66,0.00,,,0.00,Rainwise IP-100,2013-09-09 19:02:00,
2013-09-09 15:03:00,63.0,51.0,30.09,SSW,202,7.9,12.0,66,0.00,,,0.00,Rainwise IP-100,2013-09-09 19:03:00,
2013-09-09 15:04:00,63.0,51.0,30.09,SSW,202,8.4,12.0,66,0.00,,,0.00,Rainwise IP-100,2013-09-09 19:04:00,
2013-09-09 15:06:00,63.0,51.0,30.09,SW,225,7.5,11.0,66,0.00,,,0.00,Rainwise IP-100,2013-09-09 19:06:00,
2013-09-09 15:07:00,62.9,51.0,30.09,SW,225,6.8,11.0,66,0.00,,,0.00,Rainwise IP-100,2013-09-09 19:07:00,
2013-09-09 15:09:00,62.8,51.0,30.09,SW,225,10.0,11.0,66,0.00,,,0.00,Rainwise IP-100,2013-09-09 19:09:00,
2013-09-09 15:10:00,62.7,51.0,30.09,WSW,247,7.0,11.0,66,0.00,,,0.00,Rainwise IP-100,2013-09-09 19:10:00,
2013-09-09 15:11:00,62.7,51.0,30.09,SSW,202,7.5,11.0,67,0.00,,,0.00,Rainwise IP-100,2013-09-09 19:11:00,
2013-09-09 15:12:00,62.7,51.0,30.09,SSW,202,6.3,11.0,67,0.00,,,0.00,Rainwise IP-100,2013-09-09 19:12:00,
2013-09-09 15:14:00,62.6,51.0,30.09,WSW,247,9.3,12.0,67,0.00,,,0.00,Rainwise IP-100,2013-09-09 19:14:00,
2013-09-09 15:15:00,62.6,51.0,30.09,SW,225,7.0,12.0,67,0.00,,,0.00,Rainwise IP-100,2013-09-09 19:15:00,
2013-09-09 15:17:00,62.6,51.0,30.09,SW,225,9.1,12.0,67,0.00,,,0.00,Rainwise IP-100,2013-09-09 19:17:00,
2013-09-09 15:19:00,62.7,51.0,30.09,WSW,247,8.9,12.0,67,0.00,,,0.00,Rainwise IP-100,2013-09-09 19:19:00,
2013-09-09 15:21:00,62.8,51.0,30.09,SSW,202,7.0,12.0,67,0.00,,,0.00,Rainwise IP-100,2013-09-09 19:21:00,
2013-09-09 15:22:00,62.9,52.0,30.09,SSW,202,11.9,13.0,67,0.00,,,0.00,Rainwise IP-100,2013-09-09 19:22:00,
2013-09-09 15:24:00,63.0,52.0,30.09,SSW,202,12.4,13.0,67,0.00,,,0.00,Rainwise IP-100,2013-09-09 19:24:00,
2013-09-09 15:25:00,63.1,52.0,30.09,SSW,202,12.1,13.0,67,0.00,,,0.00,Rainwise IP-100,2013-09-09 19:25:00,
2013-09-09 15:26:00,63.2,51.0,30.09,SW,225,7.5,13.0,66,0.00,,,0.00,Rainwise IP-100,2013-09-09 19:26:00,
2013-09-09 15:27:00,63.3,51.0,30.09,SW,225,7.9,12.0,66,0.00,,,0.00,Rainwise IP-100,2013-09-09 19:27:00,
2013-09-09 15:28:00,63.3,51.0,30.09,SW,225,9.3,12.0,66,0.00,,,0.00,Rainwise IP-100,2013-09-09 19:28:00,
2013-09-09 15:29:00,63.4,52.0,30.09,SSW,202,7.9,12.0,66,0.00,,,0.00,Rainwise IP-100,2013-09-09 19:29:00,
2013-09-09 15:31:00,63.4,52.0,30.09,SW,225,10.5,11.0,66,0.00,,,0.00,Rainwise IP-100,2013-09-09 19:31:00,
2013-09-09 15:32:00,63.4,52.0,30.09,SW,225,10.0,11.0,66,0.00,,,0.00,Rainwise IP-100,2013-09-09 19:32:00,
2013-09-09 15:33:00,63.4,52.0,30.09,SW,225,8.6,11.0,66,0.00,,,0.00,Rainwise IP-100,2013-09-09 19:33:00,
2013-09-09 15:35:00,63.4,52.0,30.09,SSW,202,9.3,11.0,66,0.00,,,0.00,Rainwise IP-100,2013-09-09 19:35:00,
2013-09-09 15:36:00,63.4,52.0,30.09,SW,225,7.2,11.0,66,0.00,,,0.00,Rainwise IP-100,2013-09-09 19:36:00,
2013-09-09 15:38:00,63.5,52.0,30.09,SW,225,10.3,10.3,66,0.00,,,0.00,Rainwise IP-100,2013-09-09 19:38:00,
2013-09-09 15:39:00,63.5,52.0,30.09,SW,225,9.3,13.0,66,0.00,,,0.00,Rainwise IP-100,2013-09-09 19:39:00,
2013-09-09 15:40:00,63.5,52.0,30.09,WSW,247,9.3,13.0,66,0.00,,,0.00,Rainwise IP-100,2013-09-09 19:40:00,
2013-09-09 15:41:00,63.5,52.0,30.09,SSW,202,10.3,13.0,66,0.00,,,0.00,Rainwise IP-100,2013-09-09 19:41:00,
2013-09-09 15:43:00,63.5,52.0,30.09,SW,225,7.2,11.0,66,0.00,,,0.00,Rainwise IP-100,2013-09-09 19:43:00,
2013-09-09 15:44:00,63.5,52.0,30.09,WSW,247,8.6,11.0,66,0.00,,,0.00,Rainwise IP-100,2013-09-09 19:44:00,
2013-09-09 15:45:00,63.4,53.0,30.09,SW,225,7.5,11.0,67,0.00,,,0.00,Rainwise IP-100,2013-09-09 19:45:00,
2013-09-09 15:47:00,63.3,52.0,30.09,SW,225,9.8,13.0,67,0.00,,,0.00,Rainwise IP-100,2013-09-09 19:47:00,
2013-09-09 15:48:00,63.3,52.0,30.09,SW,225,8.9,13.0,67,0.00,,,0.00,Rainwise IP-100,2013-09-09 19:48:00,
2013-09-09 15:49:00,63.3,52.0,30.09,SW,225,9.1,13.0,67,0.00,,,0.00,Rainwise IP-100,2013-09-09 19:49:00,
2013-09-09 15:51:00,63.4,53.0,30.09,South,180,6.5,13.0,67,0.00,,,0.00,Rainwise IP-100,2013-09-09 19:51:00,
2013-09-09 15:52:00,63.4,53.0,30.09,South,180,5.6,12.0,67,0.00,,,0.00,Rainwise IP-100,2013-09-09 19:52:00,
2013-09-09 15:53:00,63.4,53.0,30.08,SW,225,8.2,12.0,67,0.00,,,0.00,Rainwise IP-100,2013-09-09 19:53:00,
2013-09-09 15:54:00,63.4,53.0,30.08,SW,225,10.5,12.0,67,0.00,,,0.00,Rainwise IP-100,2013-09-09 19:54:00,
2013-09-09 15:56:00,63.5,53.0,30.08,SW,225,11.7,11.7,67,0.00,,,0.00,Rainwise IP-100,2013-09-09 19:56:00,
2013-09-09 15:57:00,63.5,53.0,30.08,SW,225,7.5,12.0,67,0.00,,,0.00,Rainwise IP-100,2013-09-09 19:57:00,
2013-09-09 15:58:00,63.5,53.0,30.08,SW,225,11.0,12.0,67,0.00,,,0.00,Rainwise IP-100,2013-09-09 19:58:00,
2013-09-09 15:59:00,63.5,53.0,30.09,South,180,9.1,12.0,67,0.00,,,0.00,Rainwise IP-100,2013-09-09 19:59:00,
2013-09-09 16:01:00,63.6,53.0,30.09,SSW,202,11.2,12.0,67,0.00,,,0.00,Rainwise IP-100,2013-09-09 20:01:00,
2013-09-09 16:03:00,63.6,53.0,30.09,SSW,202,6.5,14.0,67,0.00,,,0.00,Rainwise IP-100,2013-09-09 20:03:00,
2013-09-09 16:04:00,63.6,53.0,30.09,SW,225,11.2,14.0,67,0.00,,,0.00,Rainwise IP-100,2013-09-09 20:04:00,
2013-09-09 16:05:00,63.7,53.0,30.09,WSW,247,11.0,14.0,67,0.00,,,0.00,Rainwise IP-100,2013-09-09 20:05:00,
2013-09-09 16:06:00,63.7,53.0,30.09,WSW,247,10.0,14.0,67,0.00,,,0.00,Rainwise IP-100,2013-09-09 20:06:00,
2013-09-09 16:07:00,63.7,53.0,30.09,SW,225,12.4,13.0,67,0.00,,,0.00,Rainwise IP-100,2013-09-09 20:07:00,
2013-09-09 16:08:00,63.7,52.0,30.09,WSW,247,11.2,14.0,66,0.00,,,0.00,Rainwise IP-100,2013-09-09 20:08:00,
2013-09-09 16:09:00,63.7,52.0,30.09,SW,225,11.0,14.0,66,0.00,,,0.00,Rainwise IP-100,2013-09-09 20:09:00,
2013-09-09 16:10:00,63.7,52.0,30.09,SW,225,10.7,14.0,66,0.00,,,0.00,Rainwise IP-100,2013-09-09 20:10:00,
2013-09-09 16:11:00,63.7,52.0,30.09,SSW,202,11.7,14.0,66,0.00,,,0.00,Rainwise IP-100,2013-09-09 20:11:00,
2013-09-09 16:12:00,63.7,52.0,30.09,SW,225,10.3,14.0,66,0.00,,,0.00,Rainwise IP-100,2013-09-09 20:12:00,
2013-09-09 16:13:00,63.7,52.0,30.09,WSW,247,9.1,13.0,66,0.00,,,0.00,Rainwise IP-100,2013-09-09 20:13:00,
2013-09-09 16:14:00,63.7,52.0,30.09,SSW,202,9.8,13.0,66,0.00,,,0.00,Rainwise IP-100,2013-09-09 20:14:00,
2013-09-09 16:15:00,63.7,52.0,30.09,SW,225,7.9,13.0,66,0.00,,,0.00,Rainwise IP-100,2013-09-09 20:15:00,
2013-09-09 16:18:00,63.6,52.0,30.09,SW,225,11.9,13.0,66,0.00,,,0.00,Rainwise IP-100,2013-09-09 20:18:00,
2013-09-09 16:19:00,63.6,52.0,30.09,SW,225,10.3,13.0,66,0.00,,,0.00,Rainwise IP-100,2013-09-09 20:19:00,
2013-09-09 16:20:00,63.7,52.0,30.09,SSW,202,12.1,13.0,66,0.00,,,0.00,Rainwise IP-100,2013-09-09 20:20:00,
2013-09-09 16:24:00,63.6,52.0,30.09,SW,225,9.1,12.0,66,0.00,,,0.00,Rainwise IP-100,2013-09-09 20:24:00,
2013-09-09 16:25:00,63.6,52.0,30.09,SW,225,9.8,13.0,66,0.00,,,0.00,Rainwise IP-100,2013-09-09 20:25:00,
2013-09-09 16:26:00,63.6,51.0,30.09,WSW,247,10.5,13.0,65,0.00,,,0.00,Rainwise IP-100,2013-09-09 20:26:00,
2013-09-09 16:29:00,63.6,51.0,30.09,SW,225,11.7,14.0,65,0.00,,,0.00,Rainwise IP-100,2013-09-09 20:29:00,
2013-09-09 16:30:00,63.6,51.0,30.09,SW,225,11.9,14.0,65,0.00,,,0.00,Rainwise IP-100,2013-09-09 20:30:00,
2013-09-09 16:31:00,63.6,51.0,30.09,SW,225,11.9,14.0,65,0.00,,,0.00,Rainwise IP-100,2013-09-09 20:31:00,
2013-09-09 16:34:00,63.4,51.0,30.09,SW,225,11.7,14.0,65,0.00,,,0.00,Rainwise IP-100,2013-09-09 20:34:00,
2013-09-09 16:35:00,63.4,51.0,30.09,SW,225,9.8,14.0,65,0.00,,,0.00,Rainwise IP-100,2013-09-09 20:35:00,
2013-09-09 16:36:00,63.4,51.0,30.09,SW,225,9.1,14.0,65,0.00,,,0.00,Rainwise IP-100,2013-09-09 20:36:00,
2013-09-09 16:40:00,63.4,52.0,30.09,SW,225,9.6,13.0,66,0.00,,,0.00,Rainwise IP-100,2013-09-09 20:40:00,
2013-09-09 16:41:00,63.4,52.0,30.09,SW,225,8.4,13.0,66,0.00,,,0.00,Rainwise IP-100,2013-09-09 20:41:00,
2013-09-09 16:42:00,63.3,51.0,30.09,WSW,247,8.2,13.0,66,0.00,,,0.00,Rainwise IP-100,2013-09-09 20:42:00,
2013-09-09 16:45:00,63.3,52.0,30.09,SW,225,10.7,12.0,67,0.00,,,0.00,Rainwise IP-100,2013-09-09 20:45:00,
2013-09-09 16:47:00,63.1,52.0,30.09,SW,225,10.5,12.0,67,0.00,,,0.00,Rainwise IP-100,2013-09-09 20:47:00,
2013-09-09 16:48:00,63.1,52.0,30.09,SW,225,8.4,12.0,67,0.00,,,0.00,Rainwise IP-100,2013-09-09 20:48:00,
2013-09-09 16:49:00,63.1,52.0,30.09,WSW,247,8.6,12.0,67,0.00,,,0.00,Rainwise IP-100,2013-09-09 20:49:00,
2013-09-09 16:50:00,62.9,52.0,30.09,SW,225,11.0,11.0,67,0.00,,,0.00,Rainwise IP-100,2013-09-09 20:50:00,
2013-09-09 16:52:00,62.9,52.0,30.09,SW,225,9.8,13.0,67,0.00,,,0.00,Rainwise IP-100,2013-09-09 20:52:00,
2013-09-09 16:53:00,62.9,52.0,30.09,WSW,247,9.8,13.0,67,0.00,,,0.00,Rainwise IP-100,2013-09-09 20:53:00,
2013-09-09 16:54:00,62.9,52.0,30.09,SW,225,8.9,13.0,67,0.00,,,0.00,Rainwise IP-100,2013-09-09 20:54:00,
2013-09-09 16:55:00,62.9,52.0,30.09,SW,225,8.9,13.0,67,0.00,,,0.00,Rainwise IP-100,2013-09-09 20:55:00,
2013-09-09 16:57:00,62.9,52.0,30.08,SW,225,8.4,11.0,68,0.00,,,0.00,Rainwise IP-100,2013-09-09 20:57:00,
2013-09-09 16:58:00,62.9,52.0,30.08,SW,225,8.9,11.0,68,0.00,,,0.00,Rainwise IP-100,2013-09-09 20:58:00,
2013-09-09 16:59:00,63.0,52.0,30.08,SW,225,9.8,11.0,68,0.00,,,0.00,Rainwise IP-100,2013-09-09 20:59:00,
2013-09-09 17:00:00,63.0,52.0,30.08,SSW,202,8.2,11.0,68,0.00,,,0.00,Rainwise IP-100,2013-09-09 21:00:00,
2013-09-09 17:01:00,63.2,52.0,30.08,WSW,247,10.7,11.0,68,0.00,,,0.00,Rainwise IP-100,2013-09-09 21:01:00,
2013-09-09 17:03:00,63.3,52.0,30.08,SW,225,10.0,14.0,67,0.00,,,0.00,Rainwise IP-100,2013-09-09 21:03:00,
2013-09-09 17:04:00,63.3,52.0,30.08,SSW,202,7.7,14.0,67,0.00,,,0.00,Rainwise IP-100,2013-09-09 21:04:00,
2013-09-09 17:05:00,63.4,53.0,30.08,SW,225,12.4,14.0,67,0.00,,,0.00,Rainwise IP-100,2013-09-09 21:05:00,
2013-09-09 17:06:00,63.5,52.0,30.09,SW,225,12.1,14.0,66,0.00,,,0.00,Rainwise IP-100,2013-09-09 21:06:00,
2013-09-09 17:07:00,63.5,52.0,30.09,SW,225,13.1,14.0,66,0.00,,,0.00,Rainwise IP-100,2013-09-09 21:07:00,
2013-09-09 17:09:00,63.6,51.0,30.08,SW,225,11.0,13.0,65,0.00,,,0.00,Rainwise IP-100,2013-09-09 21:09:00,
2013-09-09 17:11:00,63.7,51.0,30.08,SW,225,11.2,13.0,64,0.00,,,0.00,Rainwise IP-100,2013-09-09 21:11:00,
2013-09-09 17:12:00,63.7,51.0,30.08,SW,225,9.3,13.0,64,0.00,,,0.00,Rainwise IP-100,2013-09-09 21:12:00,
2013-09-09 17:14:00,63.7,50.0,30.08,SW,225,11.2,13.0,63,0.00,,,0.00,Rainwise IP-100,2013-09-09 21:14:00,
2013-09-09 17:16:00,63.7,50.0,30.08,SW,225,8.9,13.0,63,0.00,,,0.00,Rainwise IP-100,2013-09-09 21:16:00,
2013-09-09 17:17:00,63.7,50.0,30.08,SW,225,9.6,13.0,63,0.00,,,0.00,Rainwise IP-100,2013-09-09 21:17:00,
2013-09-09 17:18:00,63.7,50.0,30.08,SW,225,10.5,13.0,63,0.00,,,0.00,Rainwise IP-100,2013-09-09 21:18:00,
2013-09-09 17:19:00,63.7,50.0,30.08,WSW,247,9.8,12.0,63,0.00,,,0.00,Rainwise IP-100,2013-09-09 21:19:00,
2013-09-09 17:22:00,63.7,50.0,30.08,SSW,202,9.6,12.0,63,0.00,,,0.00,Rainwise IP-100,2013-09-09 21:22:00,
2013-09-09 17:23:00,63.7,50.0,30.08,SW,225,13.8,13.8,63,0.00,,,0.00,Rainwise IP-100,2013-09-09 21:23:00,
2013-09-09 17:24:00,63.8,51.0,30.08,SSW,202,8.9,14.0,64,0.00,,,0.00,Rainwise IP-100,2013-09-09 21:24:00,
2013-09-09 17:28:00,64.0,51.0,30.08,SW,225,11.4,14.0,64,0.00,,,0.00,Rainwise IP-100,2013-09-09 21:28:00,
2013-09-09 17:29:00,64.0,51.0,30.07,SW,225,11.7,14.0,64,0.00,,,0.00,Rainwise IP-100,2013-09-09 21:29:00,
2013-09-09 17:30:00,64.0,51.0,30.07,SW,225,12.8,14.0,64,0.00,,,0.00,Rainwise IP-100,2013-09-09 21:30:00,
2013-09-09 17:31:00,64.1,51.0,30.08,WSW,247,11.2,14.0,64,0.00,,,0.00,Rainwise IP-100,2013-09-09 21:31:00,
2013-09-09 17:33:00,64.1,51.0,30.08,SW,225,11.9,14.0,64,0.00,,,0.00,Rainwise IP-100,2013-09-09 21:33:00,
2013-09-09 17:34:00,64.0,51.0,30.08,WSW,247,11.0,15.0,63,0.00,,,0.00,Rainwise IP-100,2013-09-09 21:34:00,
2013-09-09 17:35:00,64.0,51.0,30.08,SW,225,10.3,15.0,63,0.00,,,0.00,Rainwise IP-100,2013-09-09 21:35:00,
2013-09-09 17:36:00,64.0,51.0,30.08,SW,225,11.7,15.0,63,0.00,,,0.00,Rainwise IP-100,2013-09-09 21:36:00,
2013-09-09 17:38:00,63.9,51.0,30.08,SW,225,12.4,15.0,63,0.00,,,0.00,Rainwise IP-100,2013-09-09 21:38:00,
2013-09-09 17:40:00,63.8,50.0,30.08,WSW,247,10.0,15.0,63,0.00,,,0.00,Rainwise IP-100,2013-09-09 21:40:00,
2013-09-09 17:41:00,63.8,50.0,30.08,WSW,247,11.2,15.0,63,0.00,,,0.00,Rainwise IP-100,2013-09-09 21:41:00,
2013-09-09 17:43:00,63.7,50.0,30.08,SW,225,13.5,15.0,63,0.00,,,0.00,Rainwise IP-100,2013-09-09 21:43:00,
2013-09-09 17:45:00,63.6,51.0,30.08,SW,225,8.4,15.0,64,0.00,,,0.00,Rainwise IP-100,2013-09-09 21:45:00,
2013-09-09 17:46:00,63.6,51.0,30.07,SW,225,9.3,15.0,64,0.00,,,0.00,Rainwise IP-100,2013-09-09 21:46:00,
2013-09-09 17:48:00,63.6,51.0,30.07,SW,225,13.3,15.0,65,0.00,,,0.00,Rainwise IP-100,2013-09-09 21:48:00,
2013-09-09 17:50:00,63.6,51.0,30.08,WSW,247,11.0,15.0,65,0.00,,,0.00,Rainwise IP-100,2013-09-09 21:50:00,
2013-09-09 17:51:00,63.6,51.0,30.08,WSW,247,10.0,15.0,65,0.00,,,0.00,Rainwise IP-100,2013-09-09 21:51:00,
2013-09-09 17:54:00,63.6,51.0,30.07,SW,225,11.4,15.0,65,0.00,,,0.00,Rainwise IP-100,2013-09-09 21:54:00,
2013-09-09 17:56:00,63.6,51.0,30.07,SW,225,11.7,14.0,65,0.00,,,0.00,Rainwise IP-100,2013-09-09 21:56:00,
2013-09-09 17:57:00,63.6,51.0,30.07,SW,225,10.7,14.0,65,0.00,,,0.00,Rainwise IP-100,2013-09-09 21:57:00,
2013-09-09 17:59:00,63.6,51.0,30.07,SW,225,12.1,14.0,65,0.00,,,0.00,Rainwise IP-100,2013-09-09 21:59:00,
2013-09-09 18:00:00,63.6,51.0,30.07,SW,225,12.1,14.0,65,0.00,,,0.00,Rainwise IP-100,2013-09-09 22:00:00,
2013-09-09 18:01:00,63.6,51.0,30.07,SW,225,11.0,13.0,65,0.00,,,0.00,Rainwise IP-100,2013-09-09 22:01:00,
2013-09-09 18:03:00,63.6,51.0,30.07,SW,225,11.9,14.0,65,0.00,,,0.00,Rainwise IP-100,2013-09-09 22:03:00,
2013-09-09 18:04:00,63.6,51.0,30.07,SW,225,12.4,14.0,65,0.00,,,0.00,Rainwise IP-100,2013-09-09 22:04:00,
2013-09-09 18:06:00,63.6,51.0,30.07,SW,225,10.3,14.0,65,0.00,,,0.00,Rainwise IP-100,2013-09-09 22:06:00,
2013-09-09 18:07:00,63.5,51.0,30.08,SW,225,9.3,14.0,65,0.00,,,0.00,Rainwise IP-100,2013-09-09 22:07:00,
2013-09-09 18:08:00,63.5,51.0,30.08,SW,225,11.7,14.0,65,0.00,,,0.00,Rainwise IP-100,2013-09-09 22:08:00,
2013-09-09 18:09:00,63.5,51.0,30.07,SW,225,12.1,14.0,65,0.00,,,0.00,Rainwise IP-100,2013-09-09 22:09:00,
2013-09-09 18:12:00,63.5,51.0,30.07,WSW,247,14.0,14.0,64,0.00,,,0.00,Rainwise IP-100,2013-09-09 22:12:00,
2013-09-09 18:13:00,63.5,51.0,30.07,SW,225,12.1,14.0,64,0.00,,,0.00,Rainwise IP-100,2013-09-09 22:13:00,
2013-09-09 18:14:00,63.5,51.0,30.07,SW,225,11.4,14.0,64,0.00,,,0.00,Rainwise IP-100,2013-09-09 22:14:00,
2013-09-09 18:17:00,63.5,51.0,30.07,SW,225,14.2,14.2,64,0.00,,,0.00,Rainwise IP-100,2013-09-09 22:17:00,
2013-09-09 18:19:00,63.5,51.0,30.07,SW,225,12.4,15.0,64,0.00,,,0.00,Rainwise IP-100,2013-09-09 22:19:00,
2013-09-09 18:21:00,63.4,51.0,30.07,WSW,247,11.7,15.0,65,0.00,,,0.00,Rainwise IP-100,2013-09-09 22:21:00,
2013-09-09 18:23:00,63.4,51.0,30.07,SW,225,11.0,14.0,65,0.00,,,0.00,Rainwise IP-100,2013-09-09 22:23:00,
2013-09-09 18:24:00,63.4,51.0,30.07,SW,225,13.5,13.5,65,0.00,,,0.00,Rainwise IP-100,2013-09-09 22:24:00,
2013-09-09 18:25:00,63.4,51.0,30.07,SW,225,10.3,14.0,65,0.00,,,0.00,Rainwise IP-100,2013-09-09 22:25:00,
2013-09-09 18:28:00,63.4,52.0,30.07,SW,225,9.8,14.0,66,0.00,,,0.00,Rainwise IP-100,2013-09-09 22:28:00,
2013-09-09 18:29:00,63.4,52.0,30.07,SW,225,7.9,14.0,66,0.00,,,0.00,Rainwise IP-100,2013-09-09 22:29:00,
2013-09-09 18:32:00,63.2,51.0,30.07,WSW,247,9.3,12.0,66,0.00,,,0.00,Rainwise IP-100,2013-09-09 22:32:00,
2013-09-09 18:33:00,63.2,51.0,30.07,WSW,247,6.8,11.0,66,0.00,,,0.00,Rainwise IP-100,2013-09-09 22:33:00,
2013-09-09 18:34:00,63.1,51.0,30.07,WSW,247,6.8,10.0,66,0.00,,,0.00,Rainwise IP-100,2013-09-09 22:34:00,
2013-09-09 18:35:00,63.1,51.0,30.07,WSW,247,8.9,10.0,66,0.00,,,0.00,Rainwise IP-100,2013-09-09 22:35:00,
2013-09-09 18:38:00,63.0,52.0,30.07,SW,225,10.5,11.0,67,0.00,,,0.00,Rainwise IP-100,2013-09-09 22:38:00,
2013-09-09 18:39:00,63.0,52.0,30.07,SW,225,8.2,11.0,67,0.00,,,0.00,Rainwise IP-100,2013-09-09 22:39:00,
2013-09-09 18:40:00,62.9,52.0,30.07,WSW,247,7.2,11.0,67,0.00,,,0.00,Rainwise IP-100,2013-09-09 22:40:00,
2013-09-09 18:43:00,62.8,51.0,30.07,WSW,247,10.0,11.0,67,0.00,,,0.00,Rainwise IP-100,2013-09-09 22:43:00,
2013-09-09 18:44:00,62.8,51.0,30.07,WSW,247,9.8,11.0,67,0.00,,,0.00,Rainwise IP-100,2013-09-09 22:44:00,
2013-09-09 18:45:00,62.8,51.0,30.07,SW,225,8.9,12.0,66,0.00,,,0.00,Rainwise IP-100,2013-09-09 22:45:00,
2013-09-09 18:47:00,62.8,51.0,30.07,WSW,247,7.9,12.0,66,0.00,,,0.00,Rainwise IP-100,2013-09-09 22:47:00,
2013-09-09 18:49:00,62.7,51.0,30.07,SW,225,9.6,12.0,67,0.00,,,0.00,Rainwise IP-100,2013-09-09 22:49:00,
2013-09-09 18:51:00,62.7,51.0,30.07,WSW,247,8.6,12.0,67,0.00,,,0.00,Rainwise IP-100,2013-09-09 22:51:00,
2013-09-09 18:52:00,62.7,51.0,30.07,WSW,247,10.7,11.0,67,0.00,,,0.00,Rainwise IP-100,2013-09-09 22:52:00,
2013-09-09 18:53:00,62.7,51.0,30.07,WSW,247,11.4,11.4,67,0.00,,,0.00,Rainwise IP-100,2013-09-09 22:53:00,
2013-09-09 18:54:00,62.6,51.0,30.08,SW,225,8.6,11.0,67,0.00,,,0.00,Rainwise IP-100,2013-09-09 22:54:00,
2013-09-09 18:55:00,62.6,51.0,30.07,SW,225,7.7,11.0,67,0.00,,,0.00,Rainwise IP-100,2013-09-09 22:55:00,
2013-09-09 18:56:00,62.6,51.0,30.07,SW,225,7.2,11.0,67,0.00,,,0.00,Rainwise IP-100,2013-09-09 22:56:00,
2013-09-09 18:57:00,62.6,51.0,30.07,SW,225,8.4,11.0,67,0.00,,,0.00,Rainwise IP-100,2013-09-09 22:57:00,
2013-09-09 18:59:00,62.6,51.0,30.07,WSW,247,8.2,10.0,67,0.00,,,0.00,Rainwise IP-100,2013-09-09 22:59:00,
2013-09-09 19:00:00,62.6,51.0,30.07,WSW,247,11.2,11.2,67,0.00,,,0.00,Rainwise IP-100,2013-09-09 23:00:00,
2013-09-09 19:01:00,62.6,52.0,30.08,WSW,247,9.8,11.0,68,0.00,,,0.00,Rainwise IP-100,2013-09-09 23:01:00,
2013-09-09 19:05:00,62.5,52.0,30.07,SW,225,8.6,11.0,68,0.00,,,0.00,Rainwise IP-100,2013-09-09 23:05:00,
2013-09-09 19:06:00,62.5,52.0,30.07,SW,225,10.0,11.0,68,0.00,,,0.00,Rainwise IP-100,2013-09-09 23:06:00,
2013-09-09 19:07:00,62.5,52.0,30.07,SW,225,10.5,11.0,68,0.00,,,0.00,Rainwise IP-100,2013-09-09 23:07:00,
2013-09-09 19:10:00,62.4,52.0,30.07,WSW,247,8.4,11.0,68,0.00,,,0.00,Rainwise IP-100,2013-09-09 23:10:00,
2013-09-09 19:11:00,62.4,52.0,30.07,WSW,247,8.2,10.0,68,0.00,,,0.00,Rainwise IP-100,2013-09-09 23:11:00,
2013-09-09 19:12:00,62.4,52.0,30.07,SW,225,8.4,10.0,68,0.00,,,0.00,Rainwise IP-100,2013-09-09 23:12:00,
2013-09-09 19:13:00,62.4,52.0,30.07,SW,225,9.1,11.0,68,0.00,,,0.00,Rainwise IP-100,2013-09-09 23:13:00,
2013-09-09 19:15:00,62.3,51.0,30.07,SW,225,8.9,13.0,68,0.00,,,0.00,Rainwise IP-100,2013-09-09 23:15:00,
2013-09-09 19:17:00,62.3,51.0,30.07,SW,225,10.0,13.0,68,0.00,,,0.00,Rainwise IP-100,2013-09-09 23:17:00,
2013-09-09 19:18:00,62.3,51.0,30.07,SW,225,8.2,13.0,68,0.00,,,0.00,Rainwise IP-100,2013-09-09 23:18:00,
2013-09-09 19:20:00,62.4,52.0,30.07,SW,225,9.1,12.0,68,0.00,,,0.00,Rainwise IP-100,2013-09-09 23:20:00,
2013-09-09 19:21:00,62.4,51.0,30.07,WSW,247,11.4,12.0,67,0.00,,,0.00,Rainwise IP-100,2013-09-09 23:21:00,
2013-09-09 19:22:00,62.4,51.0,30.07,SW,225,11.2,12.0,67,0.00,,,0.00,Rainwise IP-100,2013-09-09 23:22:00,
2013-09-09 19:23:00,62.4,51.0,30.07,SW,225,10.0,12.0,67,0.00,,,0.00,Rainwise IP-100,2013-09-09 23:23:00,
2013-09-09 19:24:00,62.4,51.0,30.07,WSW,247,9.8,12.0,67,0.00,,,0.00,Rainwise IP-100,2013-09-09 23:24:00,
2013-09-09 19:26:00,62.4,51.0,30.07,SW,225,11.9,13.0,67,0.00,,,0.00,Rainwise IP-100,2013-09-09 23:26:00,
2013-09-09 19:27:00,62.4,51.0,30.06,SW,225,11.0,13.0,67,0.00,,,0.00,Rainwise IP-100,2013-09-09 23:27:00,
2013-09-09 19:28:00,62.5,51.0,30.07,SW,225,11.2,13.0,66,0.00,,,0.00,Rainwise IP-100,2013-09-09 23:28:00,
2013-09-09 19:29:00,62.5,51.0,30.07,SW,225,8.9,13.0,66,0.00,,,0.00,Rainwise IP-100,2013-09-09 23:29:00,
2013-09-09 19:31:00,62.5,51.0,30.07,SW,225,7.9,13.0,67,0.00,,,0.00,Rainwise IP-100,2013-09-09 23:31:00,
2013-09-09 19:33:00,62.5,51.0,30.07,WSW,247,8.6,12.0,67,0.00,,,0.00,Rainwise IP-100,2013-09-09 23:33:00,
2013-09-09 19:34:00,62.5,51.0,30.07,SW,225,7.9,12.0,67,0.00,,,0.00,Rainwise IP-100,2013-09-09 23:34:00,
2013-09-09 19:35:00,62.5,51.0,30.07,SW,225,9.6,12.0,67,0.00,,,0.00,Rainwise IP-100,2013-09-09 23:35:00,
2013-09-09 19:36:00,62.4,52.0,30.07,SW,225,10.3,12.0,68,0.00,,,0.00,Rainwise IP-100,2013-09-09 23:36:00,
2013-09-09 19:38:00,62.5,52.0,30.06,SW,225,11.0,12.0,68,0.00,,,0.00,Rainwise IP-100,2013-09-09 23:38:00,
2013-09-09 19:39:00,62.5,52.0,30.07,SW,225,11.4,13.0,68,0.00,,,0.00,Rainwise IP-100,2013-09-09 23:39:00,
2013-09-09 19:40:00,62.5,52.0,30.06,SW,225,11.4,13.0,68,0.00,,,0.00,Rainwise IP-100,2013-09-09 23:40:00,
2013-09-09 19:42:00,62.5,52.0,30.07,SW,225,9.6,13.0,68,0.00,,,0.00,Rainwise IP-100,2013-09-09 23:42:00,
2013-09-09 19:43:00,62.5,52.0,30.07,SW,225,9.3,13.0,68,0.00,,,0.00,Rainwise IP-100,2013-09-09 23:43:00,
2013-09-09 19:44:00,62.5,51.0,30.07,SW,225,9.8,13.0,67,0.00,,,0.00,Rainwise IP-100,2013-09-09 23:44:00,
2013-09-09 19:45:00,62.6,51.0,30.07,SW,225,11.0,12.0,67,0.00,,,0.00,Rainwise IP-100,2013-09-09 23:45:00,
2013-09-09 19:47:00,62.6,51.0,30.07,SW,225,11.4,12.0,67,0.00,,,0.00,Rainwise IP-100,2013-09-09 23:47:00,
2013-09-09 19:48:00,62.6,51.0,30.07,WSW,247,10.0,12.0,67,0.00,,,0.00,Rainwise IP-100,2013-09-09 23:48:00,
2013-09-09 19:49:00,62.6,51.0,30.07,SW,225,9.1,12.0,66,0.00,,,0.00,Rainwise IP-100,2013-09-09 23:49:00,
2013-09-09 19:50:00,62.6,51.0,30.07,SW,225,9.6,12.0,66,0.00,,,0.00,Rainwise IP-100,2013-09-09 23:50:00,
2013-09-09 19:51:00,62.5,51.0,30.07,SW,225,9.3,12.0,66,0.00,,,0.00,Rainwise IP-100,2013-09-09 23:51:00,
2013-09-09 19:52:00,62.5,51.0,30.07,SW,225,10.7,12.0,66,0.00,,,0.00,Rainwise IP-100,2013-09-09 23:52:00,
2013-09-09 19:53:00,62.5,51.0,30.07,SW,225,9.1,12.0,66,0.00,,,0.00,Rainwise IP-100,2013-09-09 23:53:00,
2013-09-09 19:54:00,62.5,51.0,30.07,SW,225,11.0,13.0,66,0.00,,,0.00,Rainwise IP-100,2013-09-09 23:54:00,
2013-09-09 19:55:00,62.5,51.0,30.07,SW,225,11.7,13.0,66,0.00,,,0.00,Rainwise IP-100,2013-09-09 23:55:00,
2013-09-09 19:56:00,62.5,51.0,30.07,SW,225,9.8,13.0,66,0.00,,,0.00,Rainwise IP-100,2013-09-09 23:56:00,
2013-09-09 19:57:00,62.5,51.0,30.07,SW,225,9.8,13.0,66,0.00,,,0.00,Rainwise IP-100,2013-09-09 23:57:00,
2013-09-09 19:58:00,62.5,51.0,30.07,SW,225,9.1,13.0,66,0.00,,,0.00,Rainwise IP-100,2013-09-09 23:58:00,
2013-09-09 19:59:00,62.6,51.0,30.07,SW,225,9.8,12.0,67,0.00,,,0.00,Rainwise IP-100,2013-09-09 23:59:00,
2013-09-09 20:00:00,62.6,51.0,30.07,SW,225,9.3,12.0,67,0.00,,,0.00,Rainwise IP-100,2013-09-10 00:00:00,
2013-09-09 20:02:00,62.6,51.0,30.07,SW,225,10.3,12.0,67,0.00,,,0.00,Rainwise IP-100,2013-09-10 00:02:00,
2013-09-09 20:03:00,62.6,51.0,30.07,SW,225,12.1,14.0,67,0.00,,,0.00,Rainwise IP-100,2013-09-10 00:03:00,
2013-09-09 20:04:00,62.6,51.0,30.06,SW,225,11.4,14.0,67,0.00,,,0.00,Rainwise IP-100,2013-09-10 00:04:00,
2013-09-09 20:07:00,62.6,51.0,30.06,SW,225,13.3,14.0,67,0.00,,,0.00,Rainwise IP-100,2013-09-10 00:07:00,
2013-09-09 20:08:00,62.6,51.0,30.06,SW,225,12.1,14.0,67,0.00,,,0.00,Rainwise IP-100,2013-09-10 00:08:00,
2013-09-09 20:09:00,62.7,51.0,30.06,SW,225,11.2,14.0,67,0.00,,,0.00,Rainwise IP-100,2013-09-10 00:09:00,
2013-09-09 20:13:00,62.7,51.0,30.07,SW,225,10.0,13.0,67,0.00,,,0.00,Rainwise IP-100,2013-09-10 00:13:00,
2013-09-09 20:14:00,62.7,51.0,30.07,SW,225,11.0,13.0,67,0.00,,,0.00,Rainwise IP-100,2013-09-10 00:14:00,
2013-09-09 20:15:00,62.7,51.0,30.07,SW,225,9.6,13.0,67,0.00,,,0.00,Rainwise IP-100,2013-09-10 00:15:00,
2013-09-09 20:16:00,62.7,51.0,30.07,SW,225,11.4,13.0,67,0.00,,,0.00,Rainwise IP-100,2013-09-10 00:16:00,
2013-09-09 20:18:00,62.7,51.0,30.07,SW,225,11.9,13.0,67,0.00,,,0.00,Rainwise IP-100,2013-09-10 00:18:00,
2013-09-09 20:19:00,62.7,51.0,30.07,SW,225,11.4,13.0,67,0.00,,,0.00,Rainwise IP-100,2013-09-10 00:19:00,
2013-09-09 20:20:00,62.7,51.0,30.07,SW,225,10.3,13.0,67,0.00,,,0.00,Rainwise IP-100,2013-09-10 00:20:00,
2013-09-09 20:21:00,62.8,51.0,30.07,WSW,247,10.3,13.0,67,0.00,,,0.00,Rainwise IP-100,2013-09-10 00:21:00,
2013-09-09 20:24:00,62.8,52.0,30.07,SW,225,11.0,13.0,68,0.00,,,0.00,Rainwise IP-100,2013-09-10 00:24:00,
2013-09-09 20:25:00,62.8,52.0,30.07,SW,225,10.7,13.0,68,0.00,,,0.00,Rainwise IP-100,2013-09-10 00:25:00,
2013-09-09 20:26:00,62.8,52.0,30.07,SW,225,7.9,13.0,68,0.00,,,0.00,Rainwise IP-100,2013-09-10 00:26:00,
2013-09-09 20:29:00,62.7,52.0,30.06,SW,225,12.4,13.0,68,0.00,,,0.00,Rainwise IP-100,2013-09-10 00:29:00,
2013-09-09 20:30:00,62.7,52.0,30.06,SW,225,9.8,13.0,68,0.00,,,0.00,Rainwise IP-100,2013-09-10 00:30:00,
2013-09-09 20:31:00,62.7,52.0,30.06,SW,225,13.1,13.1,68,0.00,,,0.00,Rainwise IP-100,2013-09-10 00:31:00,
2013-09-09 20:32:00,62.7,52.0,30.06,SSW,202,10.7,14.0,68,0.00,,,0.00,Rainwise IP-100,2013-09-10 00:32:00,
2013-09-09 20:34:00,62.7,52.0,30.06,SW,225,10.3,14.0,68,0.00,,,0.00,Rainwise IP-100,2013-09-10 00:34:00,
2013-09-09 20:36:00,62.7,52.0,30.07,SW,225,9.8,14.0,68,0.00,,,0.00,Rainwise IP-100,2013-09-10 00:36:00,
2013-09-09 20:37:00,62.7,52.0,30.06,SW,225,8.4,13.0,68,0.00,,,0.00,Rainwise IP-100,2013-09-10 00:37:00,
2013-09-09 20:39:00,62.8,52.0,30.07,SW,225,11.0,14.0,68,0.00,,,0.00,Rainwise IP-100,2013-09-10 00:39:00,
2013-09-09 20:41:00,62.8,52.0,30.07,SW,225,13.1,15.0,68,0.00,,,0.00,Rainwise IP-100,2013-09-10 00:41:00,
2013-09-09 20:42:00,62.8,52.0,30.07,SW,225,11.7,15.0,68,0.00,,,0.00,Rainwise IP-100,2013-09-10 00:42:00,
2013-09-09 20:43:00,62.9,52.0,30.07,SW,225,10.7,15.0,68,0.00,,,0.00,Rainwise IP-100,2013-09-10 00:43:00,
2013-09-09 20:45:00,62.9,52.0,30.07,SW,225,9.3,15.0,68,0.00,,,0.00,Rainwise IP-100,2013-09-10 00:45:00,
2013-09-09 20:46:00,62.9,52.0,30.07,SW,225,10.0,14.0,68,0.00,,,0.00,Rainwise IP-100,2013-09-10 00:46:00,
2013-09-09 20:47:00,63.0,52.0,30.07,SW,225,10.3,13.0,68,0.00,,,0.00,Rainwise IP-100,2013-09-10 00:47:00,
2013-09-09 20:48:00,63.0,52.0,30.07,SW,225,11.2,14.0,68,0.00,,,0.00,Rainwise IP-100,2013-09-10 00:48:00,
2013-09-09 20:50:00,63.0,52.0,30.06,SW,225,10.0,14.0,68,0.00,,,0.00,Rainwise IP-100,2013-09-10 00:50:00,
2013-09-09 20:52:00,63.0,52.0,30.07,WSW,247,11.7,14.0,68,0.00,,,0.00,Rainwise IP-100,2013-09-10 00:52:00,
2013-09-09 20:53:00,63.0,52.0,30.07,SW,225,10.7,14.0,68,0.00,,,0.00,Rainwise IP-100,2013-09-10 00:53:00,
2013-09-09 20:54:00,63.0,52.0,30.07,SW,225,15.6,15.6,68,0.00,,,0.00,Rainwise IP-100,2013-09-10 00:54:00,
2013-09-09 20:55:00,63.0,52.0,30.07,SSW,202,9.6,15.0,68,0.00,,,0.00,Rainwise IP-100,2013-09-10 00:55:00,
2013-09-09 20:56:00,63.1,52.0,30.07,SW,225,14.0,15.0,68,0.00,,,0.00,Rainwise IP-100,2013-09-10 00:56:00,
2013-09-09 20:57:00,63.1,52.0,30.07,SW,225,15.4,16.0,68,0.00,,,0.00,Rainwise IP-100,2013-09-10 00:57:00,
2013-09-09 20:59:00,63.1,52.0,30.07,SW,225,11.4,16.0,68,0.00,,,0.00,Rainwise IP-100,2013-09-10 00:59:00,
2013-09-09 21:01:00,63.1,52.0,30.07,SW,225,11.7,16.0,68,0.00,,,0.00,Rainwise IP-100,2013-09-10 01:01:00,
2013-09-09 21:03:00,63.2,52.0,30.07,SW,225,12.8,17.0,67,0.00,,,0.00,Rainwise IP-100,2013-09-10 01:03:00,
2013-09-09 21:04:00,63.2,52.0,30.07,SW,225,11.0,17.0,67,0.00,,,0.00,Rainwise IP-100,2013-09-10 01:04:00,
2013-09-09 21:06:00,63.2,52.0,30.07,SW,225,14.7,17.0,67,0.00,,,0.00,Rainwise IP-100,2013-09-10 01:06:00,
2013-09-09 21:08:00,63.3,52.0,30.07,SW,225,9.3,17.0,67,0.00,,,0.00,Rainwise IP-100,2013-09-10 01:08:00,
2013-09-09 21:09:00,63.3,52.0,30.08,WSW,247,13.1,17.0,68,0.00,,,0.00,Rainwise IP-100,2013-09-10 01:09:00,
2013-09-09 21:10:00,63.3,52.0,30.07,SW,225,11.7,17.0,68,0.00,,,0.00,Rainwise IP-100,2013-09-10 01:10:00,
2013-09-09 21:11:00,63.3,52.0,30.07,SW,225,12.1,17.0,68,0.00,,,0.00,Rainwise IP-100,2013-09-10 01:11:00,
2013-09-09 21:13:00,63.3,52.0,30.07,SW,225,11.7,16.0,68,0.00,,,0.00,Rainwise IP-100,2013-09-10 01:13:00,
2013-09-09 21:14:00,63.3,52.0,30.07,SW,225,12.8,16.0,68,0.00,,,0.00,Rainwise IP-100,2013-09-10 01:14:00,
2013-09-09 21:15:00,63.3,52.0,30.07,SSW,202,13.3,16.0,68,0.00,,,0.00,Rainwise IP-100,2013-09-10 01:15:00,
2013-09-09 21:16:00,63.4,53.0,30.07,SSW,202,14.2,16.0,68,0.00,,,0.00,Rainwise IP-100,2013-09-10 01:16:00,
2013-09-09 21:19:00,63.4,53.0,30.06,SW,225,14.2,16.0,68,0.00,,,0.00,Rainwise IP-100,2013-09-10 01:19:00,
2013-09-09 21:20:00,63.4,53.0,30.07,SW,225,14.9,16.0,67,0.00,,,0.00,Rainwise IP-100,2013-09-10 01:20:00,
2013-09-09 21:21:00,63.4,53.0,30.07,SW,225,14.9,17.0,67,0.00,,,0.00,Rainwise IP-100,2013-09-10 01:21:00,
2013-09-09 21:24:00,63.5,53.0,30.07,SW,225,14.2,17.0,67,0.00,,,0.00,Rainwise IP-100,2013-09-10 01:24:00,
2013-09-09 21:26:00,63.5,53.0,30.07,SW,225,12.6,16.0,67,0.00,,,0.00,Rainwise IP-100,2013-09-10 01:26:00,
2013-09-09 21:27:00,63.5,53.0,30.07,SSW,202,12.1,16.0,67,0.00,,,0.00,Rainwise IP-100,2013-09-10 01:27:00,
2013-09-09 21:28:00,63.5,53.0,30.06,SW,225,11.9,17.0,67,0.00,,,0.00,Rainwise IP-100,2013-09-10 01:28:00,
2013-09-09 21:29:00,63.5,53.0,30.07,SW,225,11.4,17.0,67,0.00,,,0.00,Rainwise IP-100,2013-09-10 01:29:00,
2013-09-09 21:30:00,63.5,53.0,30.07,SW,225,12.6,17.0,67,0.00,,,0.00,Rainwise IP-100,2013-09-10 01:30:00,
2013-09-09 21:31:00,63.5,53.0,30.06,WSW,247,13.1,17.0,67,0.00,,,0.00,Rainwise IP-100,2013-09-10 01:31:00,
2013-09-09 21:32:00,63.5,53.0,30.07,SW,225,13.5,16.0,67,0.00,,,0.00,Rainwise IP-100,2013-09-10 01:32:00,
2013-09-09 21:33:00,63.5,53.0,30.07,SW,225,13.5,16.0,67,0.00,,,0.00,Rainwise IP-100,2013-09-10 01:33:00,
2013-09-09 21:35:00,63.5,53.0,30.07,SW,225,13.5,16.0,67,0.00,,,0.00,Rainwise IP-100,2013-09-10 01:35:00,
2013-09-09 21:36:00,63.5,53.0,30.07,SW,225,11.7,16.0,67,0.00,,,0.00,Rainwise IP-100,2013-09-10 01:36:00,
2013-09-09 21:37:00,63.5,53.0,30.07,SW,225,11.9,16.0,67,0.00,,,0.00,Rainwise IP-100,2013-09-10 01:37:00,
2013-09-09 21:38:00,63.5,53.0,30.07,SW,225,12.8,16.0,67,0.00,,,0.00,Rainwise IP-100,2013-09-10 01:38:00,
2013-09-09 21:39:00,63.6,53.0,30.07,SW,225,11.2,16.0,67,0.00,,,0.00,Rainwise IP-100,2013-09-10 01:39:00,
2013-09-09 21:40:00,63.6,53.0,30.07,SW,225,11.4,15.0,67,0.00,,,0.00,Rainwise IP-100,2013-09-10 01:40:00,
2013-09-09 21:42:00,63.6,53.0,30.07,SW,225,11.9,15.0,67,0.00,,,0.00,Rainwise IP-100,2013-09-10 01:42:00,
2013-09-09 21:44:00,63.6,53.0,30.07,SW,225,14.9,17.0,67,0.00,,,0.00,Rainwise IP-100,2013-09-10 01:44:00,
2013-09-09 21:46:00,63.6,53.0,30.07,SW,225,12.8,17.0,67,0.00,,,0.00,Rainwise IP-100,2013-09-10 01:46:00,
2013-09-09 21:47:00,63.6,53.0,30.07,SW,225,10.0,17.0,67,0.00,,,0.00,Rainwise IP-100,2013-09-10 01:47:00,
2013-09-09 21:48:00,63.6,53.0,30.07,SW,225,10.5,17.0,67,0.00,,,0.00,Rainwise IP-100,2013-09-10 01:48:00,
2013-09-09 21:49:00,63.6,53.0,30.07,SW,225,11.2,16.0,67,0.00,,,0.00,Rainwise IP-100,2013-09-10 01:49:00,
2013-09-09 21:51:00,63.6,53.0,30.07,WSW,247,11.9,14.0,68,0.00,,,0.00,Rainwise IP-100,2013-09-10 01:51:00,
2013-09-09 21:52:00,63.6,53.0,30.07,WSW,247,13.5,15.0,68,0.00,,,0.00,Rainwise IP-100,2013-09-10 01:52:00,
2013-09-09 21:53:00,63.6,53.0,30.07,SW,225,11.2,15.0,68,0.00,,,0.00,Rainwise IP-100,2013-09-10 01:53:00,
2013-09-09 21:54:00,63.5,53.0,30.07,SW,225,11.0,15.0,68,0.00,,,0.00,Rainwise IP-100,2013-09-10 01:54:00,
2013-09-09 21:57:00,63.5,53.0,30.07,SW,225,11.9,13.0,68,0.00,,,0.00,Rainwise IP-100,2013-09-10 01:57:00,
2013-09-09 21:58:00,63.5,53.0,30.07,WSW,247,11.7,13.0,68,0.00,,,0.00,Rainwise IP-100,2013-09-10 01:58:00,
2013-09-09 21:59:00,63.5,53.0,30.07,SW,225,11.0,15.0,68,0.00,,,0.00,Rainwise IP-100,2013-09-10 01:59:00,
2013-09-09 22:00:00,63.5,53.0,30.07,WSW,247,13.1,15.0,68,0.00,,,0.00,Rainwise IP-100,2013-09-10 02:00:00,
2013-09-09 22:02:00,63.5,53.0,30.07,WSW,247,11.7,15.0,68,0.00,,,0.00,Rainwise IP-100,2013-09-10 02:02:00,
2013-09-09 22:03:00,63.5,53.0,30.07,WSW,247,11.9,15.0,68,0.00,,,0.00,Rainwise IP-100,2013-09-10 02:03:00,
2013-09-09 22:05:00,63.5,53.0,30.07,SW,225,12.1,14.0,68,0.00,,,0.00,Rainwise IP-100,2013-09-10 02:05:00,
2013-09-09 22:07:00,63.5,53.0,30.08,SW,225,10.7,14.0,68,0.00,,,0.00,Rainwise IP-100,2013-09-10 02:07:00,
2013-09-09 22:09:00,63.5,53.0,30.07,SW,225,12.8,15.0,68,0.00,,,0.00,Rainwise IP-100,2013-09-10 02:09:00,
2013-09-09 22:10:00,63.5,53.0,30.07,SW,225,12.6,15.0,68,0.00,,,0.00,Rainwise IP-100,2013-09-10 02:10:00,
2013-09-09 22:11:00,63.5,53.0,30.07,WSW,247,13.5,15.0,68,0.00,,,0.00,Rainwise IP-100,2013-09-10 02:11:00,
2013-09-09 22:12:00,63.5,53.0,30.07,SW,225,13.3,15.0,68,0.00,,,0.00,Rainwise IP-100,2013-09-10 02:12:00,
2013-09-09 22:13:00,63.5,53.0,30.07,SW,225,9.8,15.0,68,0.00,,,0.00,Rainwise IP-100,2013-09-10 02:13:00,
2013-09-09 22:14:00,63.5,53.0,30.08,SW,225,10.3,15.0,68,0.00,,,0.00,Rainwise IP-100,2013-09-10 02:14:00,
2013-09-09 22:16:00,63.6,53.0,30.07,SW,225,13.5,15.0,69,0.00,,,0.00,Rainwise IP-100,2013-09-10 02:16:00,
2013-09-09 22:17:00,63.6,53.0,30.07,WSW,247,12.6,16.0,69,0.00,,,0.00,Rainwise IP-100,2013-09-10 02:17:00,
2013-09-09 22:18:00,63.6,53.0,30.07,SW,225,14.5,16.0,68,0.00,,,0.00,Rainwise IP-100,2013-09-10 02:18:00,
2013-09-09 22:19:00,63.7,53.0,30.07,SW,225,14.0,16.0,68,0.00,,,0.00,Rainwise IP-100,2013-09-10 02:19:00,
2013-09-09 22:21:00,63.7,53.0,30.07,SW,225,13.8,17.0,68,0.00,,,0.00,Rainwise IP-100,2013-09-10 02:21:00,
2013-09-09 22:22:00,63.7,53.0,30.07,SW,225,14.5,17.0,68,0.00,,,0.00,Rainwise IP-100,2013-09-10 02:22:00,
2013-09-09 22:23:00,63.7,53.0,30.07,SW,225,15.6,17.0,68,0.00,,,0.00,Rainwise IP-100,2013-09-10 02:23:00,
2013-09-09 22:24:00,63.7,53.0,30.07,SW,225,14.2,17.0,68,0.00,,,0.00,Rainwise IP-100,2013-09-10 02:24:00,
2013-09-09 22:27:00,63.8,53.0,30.07,SW,225,13.5,16.0,68,0.00,,,0.00,Rainwise IP-100,2013-09-10 02:27:00,
2013-09-09 22:28:00,63.8,53.0,30.07,SW,225,13.5,16.0,68,0.00,,,0.00,Rainwise IP-100,2013-09-10 02:28:00,
2013-09-09 22:29:00,63.8,53.0,30.07,SW,225,12.4,16.0,68,0.00,,,0.00,Rainwise IP-100,2013-09-10 02:29:00,
2013-09-09 22:30:00,63.8,53.0,30.07,SW,225,15.2,16.0,68,0.00,,,0.00,Rainwise IP-100,2013-09-10 02:30:00,
2013-09-09 22:32:00,63.8,53.0,30.07,SW,225,11.0,17.0,68,0.00,,,0.00,Rainwise IP-100,2013-09-10 02:32:00,
2013-09-09 22:33:00,63.8,53.0,30.07,SW,225,10.3,17.0,69,0.00,,,0.00,Rainwise IP-100,2013-09-10 02:33:00,
2013-09-09 22:34:00,63.8,53.0,30.07,WSW,247,13.8,17.0,69,0.00,,,0.00,Rainwise IP-100,2013-09-10 02:34:00,
2013-09-09 22:35:00,63.8,53.0,30.07,SW,225,11.2,17.0,69,0.00,,,0.00,Rainwise IP-100,2013-09-10 02:35:00,
2013-09-09 22:37:00,63.9,53.0,30.07,WSW,247,12.1,17.0,69,0.00,,,0.00,Rainwise IP-100,2013-09-10 02:37:00,
2013-09-09 22:38:00,63.9,53.0,30.07,SW,225,13.1,17.0,69,0.00,,,0.00,Rainwise IP-100,2013-09-10 02:38:00,
2013-09-09 22:39:00,63.9,53.0,30.07,SW,225,12.1,17.0,69,0.00,,,0.00,Rainwise IP-100,2013-09-10 02:39:00,
2013-09-09 22:40:00,63.9,53.0,30.07,SW,225,13.5,17.0,69,0.00,,,0.00,Rainwise IP-100,2013-09-10 02:40:00,
2013-09-09 22:41:00,63.9,53.0,30.07,SSW,202,10.0,17.0,69,0.00,,,0.00,Rainwise IP-100,2013-09-10 02:41:00,
2013-09-09 22:44:00,64.0,53.0,30.07,SW,225,12.1,15.0,69,0.00,,,0.00,Rainwise IP-100,2013-09-10 02:44:00,
2013-09-09 22:45:00,64.0,53.0,30.07,SW,225,8.2,15.0,69,0.00,,,0.00,Rainwise IP-100,2013-09-10 02:45:00,
2013-09-09 22:46:00,63.9,54.0,30.07,SW,225,13.5,16.0,70,0.00,,,0.00,Rainwise IP-100,2013-09-10 02:46:00,
2013-09-09 22:49:00,63.9,54.0,30.07,SW,225,12.8,16.0,70,0.00,,,0.00,Rainwise IP-100,2013-09-10 02:49:00,
2013-09-09 22:50:00,63.9,54.0,30.07,SW,225,12.1,15.0,70,0.00,,,0.00,Rainwise IP-100,2013-09-10 02:50:00,
2013-09-09 22:51:00,63.9,53.0,30.07,SW,225,14.2,17.0,69,0.00,,,0.00,Rainwise IP-100,2013-09-10 02:51:00,
2013-09-09 22:55:00,63.9,53.0,30.07,SW,225,11.2,17.0,69,0.00,,,0.00,Rainwise IP-100,2013-09-10 02:55:00,
2013-09-09 22:56:00,63.9,53.0,30.07,SW,225,12.6,15.0,69,0.00,,,0.00,Rainwise IP-100,2013-09-10 02:56:00,
2013-09-09 22:57:00,63.9,53.0,30.07,SSW,202,15.2,16.0,69,0.00,,,0.00,Rainwise IP-100,2013-09-10 02:57:00,
2013-09-09 23:00:00,63.9,53.0,30.07,SW,225,13.1,17.0,69,0.00,,,0.00,Rainwise IP-100,2013-09-10 03:00:00,
2013-09-09 23:01:00,63.9,53.0,30.06,SW,225,11.9,17.0,69,0.00,,,0.00,Rainwise IP-100,2013-09-10 03:01:00,
2013-09-09 23:02:00,63.9,53.0,30.07,SW,225,12.1,17.0,69,0.00,,,0.00,Rainwise IP-100,2013-09-10 03:02:00,
2013-09-09 23:03:00,63.9,53.0,30.07,SW,225,12.1,16.0,69,0.00,,,0.00,Rainwise IP-100,2013-09-10 03:03:00,
2013-09-09 23:05:00,64.0,53.0,30.07,WSW,247,10.0,16.0,69,0.00,,,0.00,Rainwise IP-100,2013-09-10 03:05:00,
2013-09-09 23:06:00,64.0,53.0,30.07,WSW,247,14.0,16.0,69,0.00,,,0.00,Rainwise IP-100,2013-09-10 03:06:00,
2013-09-09 23:07:00,64.0,53.0,30.07,SW,225,13.5,16.0,69,0.00,,,0.00,Rainwise IP-100,2013-09-10 03:07:00,
2013-09-09 23:08:00,64.0,53.0,30.07,SW,225,11.9,16.0,69,0.00,,,0.00,Rainwise IP-100,2013-09-10 03:08:00,
2013-09-09 23:09:00,64.0,53.0,30.07,SW,225,11.4,15.0,69,0.00,,,0.00,Rainwise IP-100,2013-09-10 03:09:00,
2013-09-09 23:10:00,64.0,53.0,30.07,SW,225,12.4,14.0,69,0.00,,,0.00,Rainwise IP-100,2013-09-10 03:10:00,
2013-09-09 23:13:00,64.0,53.0,30.07,SW,225,12.1,15.0,69,0.00,,,0.00,Rainwise IP-100,2013-09-10 03:13:00,
2013-09-09 23:14:00,64.0,53.0,30.07,SW,225,10.5,15.0,69,0.00,,,0.00,Rainwise IP-100,2013-09-10 03:14:00,
2013-09-09 23:15:00,64.0,53.0,30.07,SSW,202,15.4,15.4,69,0.00,,,0.00,Rainwise IP-100,2013-09-10 03:15:00,
2013-09-09 23:17:00,64.0,53.0,30.07,SW,225,11.9,17.0,69,0.00,,,0.00,Rainwise IP-100,2013-09-10 03:17:00,
2013-09-09 23:18:00,64.0,53.0,30.07,SW,225,14.2,17.0,69,0.00,,,0.00,Rainwise IP-100,2013-09-10 03:18:00,
2013-09-09 23:19:00,64.0,53.0,30.07,SW,225,14.7,17.0,69,0.00,,,0.00,Rainwise IP-100,2013-09-10 03:19:00,
2013-09-09 23:20:00,64.1,53.0,30.07,SW,225,13.1,17.0,69,0.00,,,0.00,Rainwise IP-100,2013-09-10 03:20:00,
2013-09-09 23:21:00,64.1,53.0,30.07,SW,225,13.5,16.0,69,0.00,,,0.00,Rainwise IP-100,2013-09-10 03:21:00,
2013-09-09 23:23:00,64.1,53.0,30.07,SW,225,12.1,16.0,69,0.00,,,0.00,Rainwise IP-100,2013-09-10 03:23:00,
2013-09-09 23:24:00,64.1,53.0,30.07,SW,225,12.6,16.0,69,0.00,,,0.00,Rainwise IP-100,2013-09-10 03:24:00,
2013-09-09 23:25:00,64.1,53.0,30.07,SW,225,12.4,16.0,69,0.00,,,0.00,Rainwise IP-100,2013-09-10 03:25:00,
2013-09-09 23:26:00,64.1,53.0,30.07,SW,225,10.3,16.0,69,0.00,,,0.00,Rainwise IP-100,2013-09-10 03:26:00,
2013-09-09 23:29:00,64.1,53.0,30.07,SW,225,13.1,16.0,69,0.00,,,0.00,Rainwise IP-100,2013-09-10 03:29:00,
2013-09-09 23:30:00,64.0,53.0,30.06,SW,225,14.0,16.0,69,0.00,,,0.00,Rainwise IP-100,2013-09-10 03:30:00,
2013-09-09 23:31:00,64.0,53.0,30.06,SW,225,14.0,17.0,69,0.00,,,0.00,Rainwise IP-100,2013-09-10 03:31:00,
2013-09-09 23:34:00,64.1,53.0,30.07,SSW,202,14.0,17.0,69,0.00,,,0.00,Rainwise IP-100,2013-09-10 03:34:00,
2013-09-09 23:36:00,64.1,53.0,30.07,SW,225,12.8,17.0,69,0.00,,,0.00,Rainwise IP-100,2013-09-10 03:36:00,
2013-09-09 23:37:00,64.1,53.0,30.07,SW,225,14.0,17.0,68,0.00,,,0.00,Rainwise IP-100,2013-09-10 03:37:00,
2013-09-09 23:39:00,64.1,53.0,30.07,SW,225,14.5,17.0,68,0.00,,,0.00,Rainwise IP-100,2013-09-10 03:39:00,
2013-09-09 23:41:00,64.1,53.0,30.07,SW,225,14.0,17.0,68,0.00,,,0.00,Rainwise IP-100,2013-09-10 03:41:00,
2013-09-09 23:42:00,64.1,53.0,30.06,SSW,202,11.0,17.0,68,0.00,,,0.00,Rainwise IP-100,2013-09-10 03:42:00,
2013-09-09 23:44:00,64.2,53.0,30.07,SW,225,11.4,19.0,68,0.00,,,0.00,Rainwise IP-100,2013-09-10 03:44:00,
2013-09-09 23:46:00,64.1,53.0,30.06,SW,225,10.0,19.0,68,0.00,,,0.00,Rainwise IP-100,2013-09-10 03:46:00,
2013-09-09 23:47:00,64.2,53.0,30.06,SW,225,12.6,19.0,68,0.00,,,0.00,Rainwise IP-100,2013-09-10 03:47:00,
2013-09-09 23:48:00,64.2,53.0,30.06,SW,225,13.5,19.0,68,0.00,,,0.00,Rainwise IP-100,2013-09-10 03:48:00,
2013-09-09 23:50:00,64.2,53.0,30.06,SW,225,13.1,16.0,68,0.00,,,0.00,Rainwise IP-100,2013-09-10 03:50:00,
2013-09-09 23:51:00,64.2,53.0,30.06,SW,225,14.5,18.0,67,0.00,,,0.00,Rainwise IP-100,2013-09-10 03:51:00,
2013-09-09 23:53:00,64.2,53.0,30.06,SSW,202,13.8,18.0,67,0.00,,,0.00,Rainwise IP-100,2013-09-10 03:53:00,
2013-09-09 23:55:00,64.3,53.0,30.06,WSW,247,13.5,18.0,67,0.00,,,0.00,Rainwise IP-100,2013-09-10 03:55:00,
2013-09-09 23:56:00,64.3,53.0,30.06,SW,225,14.0,18.0,67,0.00,,,0.00,Rainwise IP-100,2013-09-10 03:56:00,
2013-09-09 23:58:00,64.3,53.0,30.06,SW,225,14.2,17.0,67,0.00,,,0.00,Rainwise IP-100,2013-09-10 03:58:00,